İHALESİ DEVAM EDEN HASARLI ARAÇLARIN LİSTESİ

Aşağıda sınırlı sayıda hasarlı araçlar listelenmektedir.
İhaledeki tüm araçları görüp almak istediğiniz araca teklif vermeniz için aşağıda yazılı hesaplarımızdan birine 20.000 TL teminat yatırmanız gerekmektedir.
Teminat yatırdıktan sonra araçlar teklif vermeye başlayabilirsiniz. Araç kaldıktan sonra aracın rakamına göre kapora almaktayız. Ödeme geldiğinde kaporanızı ödeyeceğiniz miktardan düşüyoruz. İsterseniz yatırdığınız teminatınızı da aldığınız araçtan düşebilirsiniz ya da teminatınız durur araç almaya devam edersiniz.
Ödeme yapılacak veya bekleyen araçlar menüsünde aracınız yoksa teminatınızı geri çekebilirsiniz.
Aldığınız aracı ödemezseniz teminatınız yanar.

 #

Model

Aracın Markası Aracın Tipi Bulunduğu Şehir Kapanış Tarihi Asgari Fiyat
1 2022 Motorsiklet ARORA DAZZLE 50 İstanbul 2.9.2026 10:00 1.000 TL
2 2021 Motorsiklet RKS AZURE 50 Muğla 2.9.2026 10:00 1.000 TL
3 2020 Motorsiklet FALCON ATTACK 100 Mersin 2.9.2026 10:00 1.000 TL
4 2016 Hyundai ACCENT BLUE 1.4 D-CVVT MODE PLUS Samsun 2.9.2026 10:00 250 TL
5 2022 Motorsiklet KUBA BLUEBERRY 50 İstanbul 2.9.2026 10:00 500 TL
6 2023 Motorsiklet VOLTA VS1 Ankara 2.9.2026 10:00 250 TL
7 2024 Motorsiklet MONDIAL ELEGANTE 125 Eskişehir 2.9.2026 10:00 250 TL
8 2025 Motorsiklet CSN MOTOR BEAUTY 50 Kütahya 2.9.2026 10:00 1.000 TL
9 2021 Motorsiklet ARORA CAPIROSSI 50 Uşak 2.9.2026 10:00 750 TL
10 2023 Motorsiklet RKS SPONTINI 110 (GST110T-14) Bursa 2.9.2026 10:00 750 TL
11 2024 Motorsiklet ALTAI CARRIER 110 PRO İstanbul 2.9.2026 10:00 750 TL
12 2023 Motorsiklet MONDIAL 50 wing Denizli 2.9.2026 10:00 750 TL
13 2024 Motorsiklet MONDIAL EXON 50 Ankara 2.9.2026 10:00 750 TL
14 2014 Motorsiklet MONDIAL 100 SUPERBOY i İstanbul 2.9.2026 10:00 750 TL
15 2015 Motorsiklet HONDA CBF 150 SH Malatya 2.9.2026 10:30 1.000 TL
16 2022 Motorsiklet TVS WEGO 110 FI Adana 2.9.2026 10:30 1.500 TL
17 2024 Motorsiklet ABUSH SPEEDY 110i Siirt 2.9.2026 10:30 1.500 TL
18 2022 Motorsiklet MONDIAL 125 DRİFT L İzmir 2.9.2026 10:30 1.500 TL
19 2023 Motorsiklet HONDA CB 125 Kocaeli 2.9.2026 10:30 2.000 TL
20 2021 Motorsiklet MONDIAL WİNG 50 İstanbul 2.9.2026 10:30 1.000 TL
21 2023 Motorsiklet MONDIAL AİRTİME 50CC Isparta 2.9.2026 10:30 1.000 TL
22 2021 Motorsiklet REVOLT RM5 X MAXI SCOOTER İzmir 2.9.2026 10:30 1.000 TL
23 2024 Motorsiklet ARORA AR 06 Samsun 2.9.2026 10:30 2.000 TL
24 2024 Motorsiklet MUSATTI GLAMARO MAX 125 İstanbul 2.9.2026 10:30 1.500 TL
25 2023 Motorsiklet RKS SPONTINI 110 (GST110T-14) İstanbul 2.9.2026 10:30 2.000 TL
26 1993 Motorsiklet HONDA KINETIC Kilis 2.9.2026 10:30 1.000 TL
27 2024 Motorsiklet MONDIAL 125 DRIFT L CBS Kayseri 2.9.2026 10:30 1.500 TL
28 2024 Motorsiklet APEC PS3 50 Ankara 2.9.2026 10:30 1.500 TL
29 2018 Motorsiklet HONDA ACTIVA S (NSC125) İstanbul 2.9.2026 11:00 2.500 TL
30 2023 Motorsiklet MONDIAL WİNG 50 Aydın 2.9.2026 11:00 2.500 TL
31 2022 Motorsiklet MOTOLUX CEO 110 Gaziantep 2.9.2026 11:00 2.500 TL
32 2024 Motorsiklet SFM BUNDERA 50 Ordu 2.9.2026 11:00 2.500 TL
33 2025 Motorsiklet MONDIAL 125 DRİFT L Kocaeli 2.9.2026 11:00 2.500 TL
34 1990 Renault TOROS Tekirdağ 2.9.2026 11:00 3.000 TL
35 2020 Motorsiklet HONDA ACTIVA S (NSC125) İstanbul 2.9.2026 11:00 2.500 TL
36 1994 Fiat/Tofaş SAHİN 1.6 Antalya 2.9.2026 11:00 2.500 TL
37 2018 Motorsiklet RKS WINNER 200 Sakarya 2.9.2026 11:00 2.000 TL
38 1994 Renault SPRING İstanbul 2.9.2026 11:00 2.500 TL
39 1989 Opel KADETT GL 1.3 İzmir 2.9.2026 11:00 2.000 TL
40 1996 Fiat/Tofaş TİPO 1.6 SLX Manisa 2.9.2026 11:00 3.000 TL
41 2025 Motorsiklet TVS JUPITER 125 Adana 2.9.2026 11:00 2.000 TL
42 2018 Motorsiklet LIFAN DISCOVERY 150 (LF150-9J) Isparta 2.9.2026 11:00 2.500 TL
43 2024 Motorsiklet FALCON SALVADOR 188 Çorum 2.9.2026 11:00 2.000 TL
44 2009 Motorsiklet HONDA ACTIVA 100 Antalya 2.9.2026 11:30 6.500 TL
45 2025 Motorsiklet KUBA SPACEMAX 50 İstanbul 2.9.2026 11:30 6.000 TL
46 2024 Motorsiklet MONDIAL 125 DRİFT L Ankara 2.9.2026 11:30 6.500 TL
47 2025 Motorsiklet KUBA NEWCITY 50 İstanbul 2.9.2026 11:30 5.500 TL
48 2025 Motorsiklet TVS RAIDER Kocaeli 2.9.2026 11:30 4.500 TL
49 1991 Toyota CORONA GL Antalya 2.9.2026 11:30 3.000 TL
50 2025 Hyundai BAYON 1.0T ELITE DCT İzmir 2.9.2026 11:30 4.000 TL
51 1988 Renault 12 TSW Karabük 2.9.2026 11:30 3.000 TL
52 1994 Fiat/Tofaş TEMPRA S Sakarya 2.9.2026 11:30 4.500 TL
53 2016 Motorsiklet HONDA CBR 125 R İzmir 2.9.2026 11:30 4.500 TL
54 2024 Motorsiklet YUKI TARO GP2 Konya 2.9.2026 11:30 4.500 TL
55 2020 Fiat/Tofaş EGEA SEDAN URBAN PLUS 1.4 FIRE 95 E6D Muş 2.9.2026 11:30 3.500 TL
56 2023 Motorsiklet RKS SPONTINI 125 İstanbul 2.9.2026 11:30 3.500 TL
57 2023 Motorsiklet MONDİAL STRADA 125 Muğla 2.9.2026 11:30 3.000 TL
58 2025 Motorsiklet MONDIAL SFC 50 Kahramanmaraş 2.9.2026 11:30 4.500 TL
59 2023 Motorsiklet RKS SPONTINI 110 İstanbul 2.9.2026 12:00 21.000 TL
60 2023 Motorsiklet KUBA VN50 PRO İzmir 2.9.2026 12:00 20.500 TL
61 2021 Motorsiklet MOTOLUX CEO 110 İstanbul 2.9.2026 12:00 16.000 TL
62 1993 Fiat/Tofaş DOGAN SL İstanbul 2.9.2026 12:00 19.500 TL
63 2024 Motorsiklet RKS SRK 125 R Zonguldak 2.9.2026 12:00 12.000 TL
64 2025 Motorsiklet MONDIAL 125 DRİFT L Samsun 2.9.2026 12:00 12.000 TL
65 1998 Mazda 323 FAMILIA 1.5 SEDAN Kütahya 2.9.2026 12:00 15.500 TL
66 2023 Motorsiklet HONDA ACTİVA 125 Bursa 2.9.2026 12:00 17.000 TL
67 2025 Motorsiklet RKS VRS125 Ankara 2.9.2026 12:00 7.000 TL
68 1996 Fiat/Tofaş SAHİN Konya 2.9.2026 12:00 16.000 TL
69 2024 Motorsiklet RKS RZ250S İstanbul 2.9.2026 12:00 15.000 TL
70 2026 Motorsiklet CFMOTO 250 SR Bursa 2.9.2026 12:00 21.000 TL
71 2018 Motorsiklet HONDA PCX 125 Bursa 2.9.2026 12:00 13.000 TL
72 1991 Fiat/Tofaş DOGAN 1.6 Karabük 2.9.2026 12:00 7.500 TL
73 1997 Fiat/Tofaş DOGAN SLX Konya 2.9.2026 12:00 9.500 TL
74 2021 Hyundai i20 1.4 MPI Uşak 2.9.2026 15:15 1.000 TL
75 2019 Renault MEGANE SEDAN 1.5 DCI İstanbul 2.9.2026 15:15 1.000 TL
76 2017 Kia CEED 1.4 Balıkesir 2.9.2026 15:15 1.000 TL
77 2017 Renault MEGANE SEDAN JOY 1.6 Ankara 2.9.2026 15:15 1.000 TL
78 2022 Kia PICANTO 1.0 İstanbul 2.9.2026 15:15 1.000 TL
79 2019 Mercedes E 200 D İstanbul 2.9.2026 15:15 1.380.000 TL
80 2017 Hyundai i20 1.4 MPI JUMP OV Gaziantep 2.9.2026 15:15 341.100 TL
81 2013 Citroen C3 1.4 E-HDI CONFORT İstanbul 2.9.2026 15:15 1.000 TL
82 2016 Kia SOUL PREMIUM 1.6 CRDI İstanbul 2.9.2026 15:15 10.000 TL
83 2022 Ford KUGA 1.5 ECOBLUE Ankara 2.9.2026 15:15 50.000 TL
84 2024 Ford TOURNEO COURIER 1.5 DİZEL Erzurum 2.9.2026 15:15 1.000 TL
85 2011 Volkswagen CADDY KOMBI 1.9 TDI Van 2.9.2026 15:15 1.000 TL
86 2013 Citroen JUMPER MINIBUS 2.2 HDI 16+1 Tekirdağ 2.9.2026 15:15 500 TL
87 2023 Opel MOKKA 1.2 Van 2.9.2026 15:15 1.000 TL
88 2023 Fiat/Tofaş EGEA SEDAN 1.3 M.JET İstanbul 2.9.2026 15:15 1.000 TL
89 2016 Volkswagen PASSAT 1.6 TDI BMT Bolu 2.9.2026 15:15 1.500 TL
90 2022 Hyundai TUCSON 1.6 T-GDI Ankara 2.9.2026 15:15 1.000 TL
91 2006 Isuzu NPR KAMYON Osmaniye 2.9.2026 15:15 5.000 TL
92 2020 Renault CAPTUR 1.3 TCE Eskişehir 2.9.2026 15:15 1.000 TL
93 2012 Dacia DUSTER 1.5 DCI Çanakkale 2.9.2026 15:15 5.000 TL
94 2023 Toyota YARIS CROSS 1.5 Erzurum 2.9.2026 15:15 1.000 TL
95 2016 Volkswagen JETTA 1.4 TSI BMT Samsun 2.9.2026 15:15 1.000 TL
96 2013 Volkswagen GOLF 1.2 TSI Antalya 2.9.2026 15:15 500 TL
97 2013 Hyundai İX35 1.6 GDI İzmir 2.9.2026 15:15 1.000 TL
98 2010 Honda JAZZ 1.4 İzmir 2.9.2026 15:15 1.000 TL
99 2025 Toyota YARIS CROSS 1.5 HYBRID İzmir 2.9.2026 15:15 1.000 TL
100 2012 Toyota COROLLA SEDAN 1.4D-4D Kocaeli 2.9.2026 15:15 386.500 TL
101 2023 Fiat/Tofaş EGEA SEDAN EASY 1.3 M.JET Ankara 2.9.2026 15:15 6.500 TL
102 2011 Ford CEKICI CARGO 1838T 4X2 Şırnak 2.9.2026 15:15 1.500 TL
103 2016 Nissan MICRA 1.2 Mardin 2.9.2026 15:15 46.500 TL
104 2001 Renault CLIO SYMBOL 1.4 Ankara 2.9.2026 15:15 85.000 TL
105 2013 Fiat/Tofaş LINEA 1.4 FİRE Malatya 2.9.2026 15:15 1.000 TL
106 2018 Mercedes VITO TOURER 111 BLUETEC Muğla 2.9.2026 15:15 1.000 TL
107 2012 Opel ASTRA SEDAN 1.3 CDTI İstanbul 2.9.2026 15:15 1.000 TL
108 2009 Peugeot 207 1.6 HDI İstanbul 2.9.2026 15:15 1.000 TL
109 2016 Skoda SUPERB ACTIVE 1.4 TSI Ankara 2.9.2026 15:15 1.000 TL
110 2022 Skoda KAMIQ 1.0 TSI İstanbul 2.9.2026 15:15 5.000 TL
111 2020 Skoda FABIA 1.0 TSI İstanbul 2.9.2026 15:15 1.000 TL
112 2026 Volkswagen TAIGO 1.0 TSI Adana 2.9.2026 15:15 1.000 TL
113 2011 Renault FLUENCE 1.5 DCI Samsun 2.9.2026 15:15 1.000 TL
114 2023 Renault CEKICI D19 WIDE 4X2T 460 E6 Kocaeli 2.9.2026 15:30 1.000 TL
115 2007 Citroen C5 SX 1.6 HDI Ankara 2.9.2026 15:30 1.000 TL
116 2004 Renault SCENIC II DYNAMIQUE 1.6 16V İzmir 2.9.2026 15:30 1.000 TL
117 1995 Fiat/Tofaş KARTAL 1.6 Trabzon 2.9.2026 15:30 1.000 TL
118 2017 Ford KAMYON 3242S 8X2 Ankara 2.9.2026 15:30 1.000 TL
119 1997 Renault BROADWAY 1.4 RL Van 2.9.2026 15:30 1.000 TL
120 2025 Dorse/Römork ÖZGÜL DAMPERLİ HARDOX İzmir 2.9.2026 15:30 1.000 TL
121 2015 Fiat/Tofaş DUCATO KAMYONET 2800DC CIFT KABIN KASALI Antalya 2.9.2026 15:30 1.000 TL
122 2017 Renault KANGOO MULTIX EXTREM 1.5 DCI 110 İstanbul 2.9.2026 15:30 1.000 TL
123 2019 Fiat/Tofaş EGEA SEDAN URBAN PLUS 1.3 M.JET 95 E6D Nevşehir 2.9.2026 15:30 1.000 TL
124 2022 Opel CROSSLAND 1.2 130 AT6 ESSENTIAL Ankara 2.9.2026 15:30 1.000 TL
125 2025 Motorsiklet STRADA 125 Manisa 2.9.2026 15:30 1.000 TL
126 2005 Renault MEGANE 1.5 DCI Antalya 2.9.2026 15:30 1.000 TL
127 2025 Fiat/Tofaş EGEA SEDAN URBAN 1.6 M.JET 130 GSR Hatay 2.9.2026 15:30 1.000 TL
128 2022 Motorsiklet Mv Agusta BRUTALE 800 ROSSO İstanbul 2.9.2026 15:30 TL
129 2017 Ford TOURNEO CUSTOM 8+1 300 L 155 TITANIUM PLUS Antalya 2.9.2026 15:30 1.000 TL
130 2024 Opel MOVANO 2.2 140 4T 16+1 OKUL Eskişehir 2.9.2026 15:30 1.000 TL
131 2005 Toyota AVENSIS 1.6 ELEGANT Isparta 2.9.2026 15:30 1.000 TL
132 2020 Fiat/Tofaş EGEA SEDAN EASY 1.4 FIRE 95 E6D Isparta 2.9.2026 15:30 1.000 TL
133 2023 Traktör DEUTZ-FAHR 5105 E GS FAZ V Erzurum 2.9.2026 15:30 1.000 TL
134 2025 Volkswagen TAIGO 1.0 TSI 116 LIFE DSG Samsun 2.9.2026 15:30 1.000 TL
135 2014 Ford FOCUS III TREND X 1.6 TDCi (95) 4K Şehir Seç 2.9.2026 15:30 1.000 TL
136 2011 Toyota COROLLA SEDAN 1.6 COMFORT Extra OV Balıkesir 2.9.2026 15:30 1.000 TL
137 2014 Skoda YETI ELEGANCE 1.6 TDI CR 105 DSG GREEN TEC Erzurum 2.9.2026 15:30 1.000 TL
138 2020 Fiat/Tofaş EGEA SEDAN EASY 1.6 M.JET 120 DCT E6D Isparta 2.9.2026 15:30 1.000 TL
139 2022 Renault TALIANT JOY 1.0 TURBO X-TRONIC 90 Kayseri 2.9.2026 15:30 1.000 TL
140 2024 Ford TRANSIT COURIER 1.5 TDCI 100 E6.2 DELUXE Muğla 2.9.2026 15:30 1.000 TL
141 2020 Kia RIO COOL 1.4 OV Ankara 2.9.2026 15:30 1.000 TL
142 2020 Ford TRANSIT OTOBUS 440E 19 1 170 DELUXE E6.2 Gaziantep 2.9.2026 15:30 1.000 TL
143 1999 Peugeot 306 GRIFFE 1.6 5 KAPI Konya 2.9.2026 15:30 1.000 TL
144 2023 Renault MEGANE SEDAN JOY COMFORT 1.3 TCE EDC 140 FAZ2 İstanbul 2.9.2026 15:30 1.000 TL
145 2025 Opel ASTRA HB 1.2 AT8 130 GS Ankara 2.9.2026 15:30 1.000 TL
146 2022 Fiat/Tofaş EGEA CROSS URBAN 1.6 M.JET 130 DCT Kayseri 2.9.2026 15:30 1.000 TL
147 2015 Audi A3 1.6 TDI 110 Ambiente S TRONIC Antalya 2.9.2026 15:30 1.000 TL
148 2026 Peugeot 408 ALLURE 1.2 HYBRID 145 eDCS6 Kayseri 2.9.2026 15:30 1.000 TL
149 2016 Motorsiklet TOURING 125 MH DRIFT Tokat 2.9.2026 15:30 1.000 TL
150 2025 Audi Q7 S LINE 45 TFSI 265 QUATTRO TIPTRONIC PI Ankara 2.9.2026 15:30 1.000 TL
151 2025 Motorsiklet CEO 110 Samsun 2.9.2026 15:30 1.000 TL
152 2012 Peugeot 208 5 KAPI ALLURE 1.6 e-HDI (92) AUTO6R Zonguldak 2.9.2026 15:30 1.000 TL
153 2025 Motorsiklet REALE 125 Şehir Seç 2.9.2026 15:30 1.000 TL
154 2019 Motorsiklet DASH 125 İstanbul 2.9.2026 15:30 1.000 TL
155 2024 Motorsiklet ZELSUN ZLS-125 MONACO Mersin 2.9.2026 15:30 1.000 TL
156 2023 Motorsiklet AROME 125 Mersin 2.9.2026 15:30 1.000 TL
157 2024 Motorsiklet REALE 125 Şehir Seç 2.9.2026 15:30 1.000 TL
158 2022 Motorsiklet NEW LIGHT (GST125T-16) Erzincan 2.9.2026 15:30 1.000 TL
159 2025 Motorsiklet ALTAI F3MAX50 Şehir Seç 2.9.2026 15:30 1.000 TL
160 2025 Motorsiklet RSX5 Yalova 2.9.2026 15:30 1.000 TL
161 2013 Fiat/Tofaş 500L 1.3 MULTIJET II 85 POPSTAR DUALOGIC Şehir Seç 2.9.2026 15:30 1.000 TL
162 2014 Motorsiklet Ramzey KARACA 100 Bursa 2.9.2026 15:30 TL
163 2023 Motorsiklet PESARO 50X Bursa 2.9.2026 15:30 1.000 TL
164 2009 Motorsiklet 100 UKH Antalya 2.9.2026 15:30 1.000 TL
165 2022 Motorsiklet XRS 125 Antalya 2.9.2026 15:30 1.000 TL
166 2025 Motorsiklet CEO 110 Ankara 2.9.2026 15:30 1.000 TL
167 2020 Motorsiklet BLAZER XR Ankara 2.9.2026 15:30 1.000 TL
168 2020 Motorsiklet RAINBOW 50 Ankara 2.9.2026 15:30 1.000 TL
169 2016 Motorsiklet KB150-25 Iğdır 2.9.2026 15:30 1.000 TL
170 2024 Motorsiklet PULSAR NS 200 UG İstanbul 2.9.2026 15:30 1.000 TL
171 2021 Motorsiklet RITMICA 100 Adana 2.9.2026 15:30 1.000 TL
172 2021 Mercedes CLS 400 D MATIC AMG İstanbul 2.9.2026 15:30 1.000 TL
173 2023 Fiat/Tofaş SCUDO VAN MAXI BUSINESS 2.0 145 İstanbul 2.9.2026 15:30 1.000 TL
174 2023 Iveco EUROCARGO MLC 120 EL 190 Samsun 2.9.2026 15:30 1.000 TL
175 2008 Renault LAGUNA 1.6 16V EXPRESSION İstanbul 2.9.2026 15:30 1.000 TL
176 2025 Mercedes CLA 45 S 4MATIC+ FINAL EDT İstanbul 2.9.2026 15:30 1.000 TL
177 2025 Mercedes CLA 350 4MATIC EDITION 1 AMG İstanbul 2.9.2026 15:30 1.000 TL
178 2004 Toyota AVENSIS 1.6 COMFORT Elazığ 2.9.2026 15:30 1.000 TL
179 1999 Opel CORSA SWING 1.2i 16V Erzincan 2.9.2026 15:30 1.000 TL
180 1994 Fiat/Tofaş TIPO 1.6 S Amasya 2.9.2026 15:30 1.000 TL
181 2018 Peugeot 301 ACTIVE 1.6 BLUEHDI 100 Kayseri 2.9.2026 15:30 1.000 TL
182 2016 Seat LEON 1.4 TSI Ankara 2.9.2026 15:30 1.000 TL
183 2025 Citroen C4 MAX 1.2 PURETECH 130 EAT8 Çanakkale 2.9.2026 15:30 1.000 TL
184 2007 Renault CLIO SYMBOL 1.5 DCI Adana 2.9.2026 15:30 1.000 TL
185 2026 Toyota COROLLA HYBRID 1.8 DREAM E-CVT FL İzmir 2.9.2026 15:30 1.000 TL
186 2021 Mitsubishi L200 CIFT KABIN KAMYONET 2.2 4x4 STORM MT Ankara 2.9.2026 15:30 1.000 TL
187 2006 Ford T. CONNECT KOMBI K210S 1.8 TDCi Ordu 2.9.2026 15:30 1.000 TL
188 2013 Fiat/Tofaş FIORINO COMBI 1.3 M.JET 75 E5 POP Elazığ 2.9.2026 15:30 1.000 TL
189 2010 Volkswagen CADDY KOMBI 1.9 TDI Diyarbakır 2.9.2026 15:30 1.000 TL
190 2011 Opel MERIVA 1.4 ENJOY Çorum 2.9.2026 15:30 1.000 TL
191 2008 Suzuki SWIFT 1.3 Ankara 2.9.2026 15:30 1.000 TL
192 2003 Dorse/Römork Schmitz Cargobull SPR 24/L Burdur 2.9.2026 15:30 TL
193 2025 Volkswagen ID.4 PURE Konya 2.9.2026 15:30 1.000 TL
194 2023 Mercedes AROCS 4142 B İstanbul 2.9.2026 15:30 1.000 TL
195 2021 Man TGS 18.470 4X2 BL SA Balıkesir 2.9.2026 15:30 1.000 TL
196 2015 Dorse/Römork MAKSİMA XS YARI RÖMORK Bursa 2.9.2026 15:30 1.000 TL
197 2025 Skoda ELROQ 60 İstanbul 2.9.2026 15:30 1.000 TL
198 2025 Hyundai BAYON 1.0 T-GDI Bursa 2.9.2026 15:30 1.000 TL
199 2018 Fiat/Tofaş EGEA SEDAN EASY 1.3 M.JET Antalya 2.9.2026 15:30 1.000 TL
200 2025 Renault MEGANE SEDAN 1.3 TCE Ankara 2.9.2026 15:30 1.000 TL
201 2015 Volkswagen PASSAT 1.6 TDI İstanbul 2.9.2026 15:30 1.000 TL
202 2017 Ford FOCUS SEDAN 1.6 TDCI Ankara 2.9.2026 15:30 1.000 TL
203 2011 Renault SYMBOL 1.5 DCI Ankara 2.9.2026 15:30 1.000 TL
204 2023 Motorsiklet JETX 125 İstanbul 2.9.2026 15:30 1.000 TL
205 2021 Motorsiklet PAN AMERICA 1250 SPECIAL İstanbul 2.9.2026 15:30 1.000 TL
206 2024 Peugeot e-2008 İstanbul 2.9.2026 15:30 1.000 TL
207 2013 Fiat/Tofaş PUNTO 1.3 MULTIJET İstanbul 2.9.2026 15:30 1.000 TL
208 2010 Ford FIESTA 1,4 TDCİ TREND Trabzon 2.9.2026 15:30 1.000 TL
209 2022 Motorsiklet PULSAR NS 200 Muğla 2.9.2026 15:30 1.000 TL
210 2005 Opel CORSA 1.3 CDTİ Aksaray 2.9.2026 15:30 1.000 TL
211 2024 Honda ACTIVA 125 İstanbul 2.9.2026 15:30 1.000 TL
212 2022 Peugeot 508 ALLURE 1.5 BLUEHDI İstanbul 2.9.2026 15:30 1.000 TL
213 2017 Mercedes KAMYON AROCS 3342 Mardin 2.9.2026 15:30 1.000 TL
214 2026 Man KAMYON TGS 41.440 Eskişehir 2.9.2026 15:30 1.000 TL
215 2004 Renault CLIO 1.2 16V AUTHENTIQE Adana 2.9.2026 15:30 1.000 TL
216 2024 Motorsiklet JUPITER 110 İstanbul 2.9.2026 15:30 1.000 TL
217 2019 Fiat/Tofaş EGEA SEDAN 1.4 FIRE 95 Şehir Seç 2.9.2026 15:30 1.000 TL
218 2021 Bmw S 1000 XR İstanbul 2.9.2026 15:30 1.000 TL
219 2009 Renault SYMBOL 1.2 İstanbul 2.9.2026 15:30 1.000 TL
220 2014 Renault MEGANE 1,5 DCİ Hatay 2.9.2026 15:30 1.000 TL
221 2020 Honda PCX 125 Uşak 2.9.2026 15:30 1.000 TL
222 2013 Volkswagen CADDY KOMBI 1.6 TDI Konya 2.9.2026 15:30 1.000 TL
223 2025 Motorsiklet SAFARİ PRO 125 Samsun 2.9.2026 15:30 1.000 TL
224 2020 Motorsiklet CAPPUCINO 50 İstanbul 2.9.2026 15:30 1.000 TL
225 2025 Motorsiklet KUBA Kırşehir 2.9.2026 15:30 1.000 TL
226 2012 Ford FIESTA 1,4 TDCİ İzmir 2.9.2026 15:30 1.000 TL
227 2020 Toyota COROLLA 1.6 İstanbul 2.9.2026 15:30 1.000 TL
228 2025 Motorsiklet ARORA AR50 Kayseri 2.9.2026 15:30 1.000 TL
229 2025 Suzuki SWIFT 1.2 Tekirdağ 2.9.2026 15:30 1.000 TL
230 2023 Fiat/Tofaş EGEA 1,3 MULTİJET Diyarbakır 2.9.2026 15:30 1.000 TL
231 2012 Renault FLUENCE 1.5 DCI İzmir 2.9.2026 15:30 1.000 TL
232 2025 Dorse/Römork YİĞİTSAN TREYLER YARI RÖMORK Konya 2.9.2026 15:30 1.000 TL
233 2018 Volkswagen PASSAT 1.6 TDI Mardin 2.9.2026 15:30 1.000 TL
234 2024 Kia PICANTO FEEL 1.0 Aydın 2.9.2026 15:30 1.000 TL
235 2023 Dacia DUSTER 1.3 TCE Giresun 2.9.2026 15:30 1.000 TL
236 2007 Toyota COROLLA 1.4 D 4D SOL HB Afyonkarahisar 2.9.2026 15:30 1.000 TL
237 2015 Volkswagen JETTA 1.6 TDI TRENDLINE Kocaeli 2.9.2026 15:30 1.000 TL
238 2025 Motorsiklet QUANTUM 50 Ankara 2.9.2026 15:30 1.000 TL
239 1994 Renault R 1339 Elazığ 2.9.2026 15:30 1.000 TL
240 2023 Motorsiklet RSV4 1100 İstanbul 2.9.2026 15:30 1.000 TL
241 2018 Renault KANGOO MULTIX 1.5 DCI İstanbul 2.9.2026 15:30 1.000 TL
242 2024 Fiat/Tofaş FIORINO COMBI 1.3 M.JET Düzce 2.9.2026 15:30 1.000 TL
243 2020 Dacia DUSTER 1.5 BLUEDCI Mersin 2.9.2026 15:30 1.000 TL
244 2025 Fiat/Tofaş EGEA SEDAN 1.4 FIRE İstanbul 2.9.2026 15:30 1.000 TL
245 2011 Hyundai i20 1.4 Kocaeli 2.9.2026 15:30 1.000 TL
246 2018 Ford TRANSIT CUSTOM VAN İstanbul 2.9.2026 15:30 1.000 TL
247 2007 Opel COMBO 1.3 CDTi Ordu 2.9.2026 15:30 1.000 TL
248 2011 Ford FOCUS HB COLLECTION 1.6 TDCi Trabzon 2.9.2026 15:30 1.000 TL
249 2021 Ford TOURNEO COURIER KOMBI 1.5 TDCI 75 Diyarbakır 2.9.2026 15:30 1.000 TL
250 2017 Bmw 520i SEDAN 1.6 170 İzmir 2.9.2026 15:30 1.000 TL
251 2013 Honda CIVIC SEDAN 1.6 125 Gaziantep 2.9.2026 15:30 1.000 TL
252 2023 Motorsiklet Benellı 125S İstanbul 2.9.2026 15:30 TL
253 2025 Ford FOCUS 1.5 ECOBLUE İzmir 2.9.2026 15:30 1.000 TL
254 2023 Ford TOURNEO COURIER KOMBI 1.5 TDCI 100 Diyarbakır 2.9.2026 15:30 1.000 TL
255 2025 Peugeot 408 ALLURE 1.2 PURETECH 130 İstanbul 2.9.2026 15:30 1.000 TL
256 2026 Opel CORSA HB HYBRID 1.2 Ankara 2.9.2026 15:30 1.000 TL
257 2024 Renault MEGANE SEDAN 1.3 TCE İzmir 2.9.2026 15:30 1.000 TL
258 2026 Renault AUSTRAL 1.3 TCE İzmir 2.9.2026 15:30 1.000 TL
259 2024 Dacia DUSTER 1.3 TCE Samsun 2.9.2026 15:30 1.000 TL
260 2025 Iveco 35 C 16 İzmir 2.9.2026 15:30 1.000 TL
261 2022 Honda JAZZ 1.5 İstanbul 2.9.2026 15:30 1.000 TL
262 2020 Opel CORSA 1.2 Bursa 2.9.2026 15:30 1.000 TL
263 2016 Volkswagen POLO 1.2 TSI BMT Malatya 2.9.2026 15:30 1.000 TL
264 2015 Ford KUGA 1.5 ECOBOOST Muğla 2.9.2026 15:30 1.000 TL
265 2017 Toyota AURIS 1.33 İzmir 2.9.2026 15:30 1.000 TL
266 2016 Fiat/Tofaş EGEA 1,6 MULTİJET Antalya 2.9.2026 15:30 1.000 TL
267 2019 Dacia SANDERO 0.9 Antalya 2.9.2026 15:30 1.000 TL
268 2024 Honda PCX 125 Bursa 2.9.2026 15:30 1.000 TL
269 2022 Toyota COROLLA 1.5 SEDAN Şanlıurfa 2.9.2026 15:30 1.000 TL
270 2015 Ford TOURNEO COURIER KOMBI 1.6 TDCI Konya 2.9.2026 15:30 1.000 TL
271 2004 Volkswagen POLO 1.4 TDI BASICLINE Şehir Seç 2.9.2026 15:30 1.000 TL
272 2025 Motorsiklet Musattı GLAMARO MAX 125 Ankara 2.9.2026 15:30 TL
273 2023 Toyota COROLLA CROSS 1.8 HYBRID Ankara 2.9.2026 15:30 1.000 TL
274 2024 Motorsiklet AROME 125 PRO Kocaeli 2.9.2026 15:30 1.000 TL
275 2011 Ford FOCUS 1.6i HB Kütahya 2.9.2026 15:30 1.000 TL
276 2012 Volkswagen CC 1.4 TSI 160 TIPTRONIC DSG Bursa 2.9.2026 15:30 1.000 TL
277 2025 Opel CORSA-E GS Kayseri 2.9.2026 15:30 1.000 TL
278 2017 Renault KADJAR BLACK EDITION 1.5 DCI Sivas 2.9.2026 15:30 1.000 TL
279 1996 Toyota COROLLA 1.6 XEi Kahramanmaraş 2.9.2026 15:30 1.000 TL
280 2020 Renault CLIO 1.0 Sivas 2.9.2026 15:30 1.000 TL
281 2026 Citroen BERLINGO 1.5 BLUEHDI İstanbul 2.9.2026 15:30 1.000 TL
282 2011 Nissan NAVARA 2.5 D Adana 2.9.2026 15:30 1.000 TL
283 2008 Volkswagen CADDY KOMBI 1.9 TDI İstanbul 2.9.2026 15:30 1.000 TL
284 2021 Motorsiklet M108S Bartın 2.9.2026 15:30 1.000 TL
285 2025 Motorsiklet 450 NK Şehir Seç 2.9.2026 15:30 1.000 TL
286 1993 Fiat/Tofaş DOGAN SL Kütahya 2.9.2026 15:30 1.000 TL
287 2025 Opel COMBO 1.5 DIZEL Gaziantep 2.9.2026 15:30 1.000 TL
288 2006 Renault CLIO 1.2 Ordu 2.9.2026 15:30 1.000 TL
289 2022 Dacia SANDERO 1,0 TCE Samsun 2.9.2026 15:30 1.000 TL
290 2025 Opel COMBO 1,5 Kayseri 2.9.2026 15:30 1.000 TL
291 2011 Renault SYMBOL 1.5 DCI İzmir 2.9.2026 15:30 1.000 TL
292 2023 Ford TRANSIT COURIER VAN 1.5 TDCI İstanbul 2.9.2026 15:30 1.000 TL
293 2014 Renault FLUENCE TOUCH 1.5 DCI Sivas 2.9.2026 15:30 1.000 TL
294 2014 Volkswagen CADDY KOMBI 1.6 TDI (102) Van 2.9.2026 15:30 1.000 TL
295 2026 Motorsiklet RSX5 150 Şehir Seç 2.9.2026 15:30 1.000 TL
296 2006 Citroen BERLINGO 1.6 HDI Giresun 2.9.2026 15:30 1.000 TL
297 2025 Motorsiklet PULSAR NS 125 ABS İstanbul 2.9.2026 15:30 1.000 TL
298 2007 Volkswagen JETTA 1.6 PRIMELINE Şanlıurfa 2.9.2026 15:30 1.000 TL
299 2021 Mercedes ACTROS 1848 LS İstanbul 2.9.2026 15:30 1.000 TL
300 2020 Citroen C3 AIRCROSS 1.2 PURETECH Kayseri 2.9.2026 15:30 1.000 TL
301 2012 Bmw 320d SEDAN Kocaeli 2.9.2026 15:30 1.000 TL
302 2024 Opel CORSA 1.2 İzmir 2.9.2026 15:30 1.000 TL
303 2023 Nissan JUKE 1.0 DIG-T DCT TEKNA İzmir 2.9.2026 15:30 1.000 TL
304 2023 Motorsiklet JUPİTER 110 Manisa 2.9.2026 15:30 1.000 TL
305 2012 Fiat/Tofaş LINEA 1.6 MULTIJET EMOTİON Erzincan 2.9.2026 15:30 1.000 TL
306 2021 Toyota COROLLA 1.5 İstanbul 2.9.2026 15:30 1.000 TL
307 2013 Bmw 320i ED İstanbul 2.9.2026 15:30 1.000 TL
308 2020 Dacia SANDERO AMBIANCE 1.0 İstanbul 2.9.2026 15:30 1.000 TL
309 2022 Mercedes CLA 200 4MATIC 1.33 Kocaeli 2.9.2026 15:30 1.000 TL
310 2020 Fiat/Tofaş FIORINO 1.3 M.JET Bursa 2.9.2026 15:30 1.000 TL
311 2024 Fiat/Tofaş DOBLO COMBI EASY 1.5 BLUEHDI İstanbul 2.9.2026 15:30 1.000 TL
312 2009 Ford T.CONNECT KOMBI 1.8 TDCi Samsun 2.9.2026 15:30 1.000 TL
313 1998 Fiat/Tofaş ŞAHİN 1.6 Osmaniye 2.9.2026 15:30 1.000 TL
314 2006 Fiat/Tofaş ALBEA 1.6 DYNAMIC Adana 2.9.2026 15:30 1.000 TL
315 2010 Motorsiklet X CITY 250 Bursa 2.9.2026 15:30 1.000 TL
316 2015 Dacia DOKKER VAN AMBIANCE 1.5 DCI Ankara 2.9.2026 15:30 1.000 TL
317 2023 Honda NSC 110 Antalya 2.9.2026 15:30 1.000 TL
318 2025 Motorsiklet MOJİTO 50 Ankara 2.9.2026 15:30 1.000 TL
319 1996 Fiat/Tofaş TIPO SLX Bolu 2.9.2026 15:30 1.000 TL
320 2006 Land Rover RANGE ROVER SPORT 4.2 SC Ankara 2.9.2026 15:30 1.000 TL
321 2023 Motorsiklet 125 R İzmir 2.9.2026 15:30 1.000 TL
322 2024 Renault AUSTRAL 1.3 HYBRID Kocaeli 2.9.2026 15:30 1.000 TL
323 1998 Renault EUROPA 1.4 RNA Trabzon 2.9.2026 15:30 1.000 TL
324 2001 Peugeot PARTNER 1.9D Konya 2.9.2026 15:30 1.000 TL
325 2022 Ford PUMA 1.0 ECOBOOST 125 Trabzon 2.9.2026 15:30 1.000 TL
326 2005 Hyundai ACCENT 1.3 ADMIRE İstanbul 2.9.2026 15:30 1.000 TL
327 2024 Motorsiklet TVS NTORQ 125 Ankara 2.9.2026 15:30 1.000 TL
328 2013 Mercedes KAMYON AXOR 4140 B Samsun 2.9.2026 15:30 1.000 TL
329 2006 Ford FIESTA 1.4 TDCİ COMFORT Aydın 2.9.2026 15:30 1.000 TL
330 2023 Honda DIO Aydın 2.9.2026 15:30 1.000 TL
331 2013 Mercedes KAMYON AXOR 4140 B Samsun 2.9.2026 15:30 1.000 TL
332 2011 Citroen BERLINGO COMBI 1.6 HDI Eskişehir 2.9.2026 15:30 1.000 TL
333 2025 Chery TIGGO 8 İstanbul 2.9.2026 15:30 1.000 TL
334 2023 Toyota COROLLA 1.5 SEDAN Adana 2.9.2026 15:30 1.000 TL
335 2012 Ford C MAX 1.6 TDCi İzmir 2.9.2026 15:30 1.000 TL
336 2004 Ford TRANSIT CONNECT K210 S Antalya 2.9.2026 15:30 1.000 TL
337 2013 Fiat/Tofaş PUNTO 1.3 MULTIJET İstanbul 2.9.2026 15:30 1.000 TL
338 2021 Honda PCX 125 İstanbul 2.9.2026 15:30 1.000 TL
339 2012 Volkswagen POLO GTI 1.4 TSI (180) TIPTRONIC DSG İstanbul 2.9.2026 15:30 1.000 TL
340 2019 Renault MEGANE SEDAN 1.5 DCI 110 Giresun 2.9.2026 15:30 1.000 TL
341 2015 Motorsiklet XEVO 250 İstanbul 2.9.2026 15:30 1.000 TL
342 2006 Renault MEGANE II HB AUTHENTIQUE 1.4 16V Ankara 2.9.2026 15:30 1.000 TL
343 2025 Motorsiklet VOGE 125-R İstanbul 2.9.2026 15:30 1.000 TL
344 2012 Renault SYMBOL 1.2 16V 75 Şehir Seç 2.9.2026 15:30 1.000 TL
345 2002 Opel ASTRA 1.6 HB COMFORT Nevşehir 2.9.2026 15:30 1.000 TL
346 2019 Ford TOURNEO COURIER JOURNEY 1.5 TDCI Antalya 2.9.2026 15:30 1.000 TL
347 2010 Toyota YARIS 1.33 SOL Sakarya 2.9.2026 15:30 1.000 TL
348 2018 Renault SYMBOL 1.5 DCI İzmir 2.9.2026 15:30 1.000 TL
349 1999 Toyota COROLLA 1.3 Ankara 2.9.2026 15:30 1.000 TL
350 2012 Dacia DUSTER 1.5 DCI (85) 4x2 Muğla 2.9.2026 15:30 1.000 TL
351 2024 Motorsiklet JUPITER 125 Kayseri 2.9.2026 15:30 1.000 TL
352 2023 Motorsiklet DOMINAR D 250 İstanbul 2.9.2026 15:30 1.000 TL
353 2024 Motorsiklet NEWLIGHT 125 PRO İstanbul 2.9.2026 15:30 1.000 TL
354 2024 Motorsiklet FR177 Şehir Seç 2.9.2026 15:30 1.000 TL
355 2021 Renault EXPRESS COMBİ 1.5 BLUEDCI Osmaniye 2.9.2026 15:30 1.000 TL
356 2023 Motorsiklet 450 SR Şehir Seç 2.9.2026 15:30 1.000 TL
357 2011 Citroen NEMO PANELVAN 1.4 HDI Adana 2.9.2026 15:30 1.000 TL
358 2003 Mercedes ML 350 Erzincan 2.9.2026 15:30 1.000 TL
359 2014 Hyundai i20 1.4 CRDI Ankara 2.9.2026 15:30 1.000 TL
360 2024 Honda PCX 125 Çanakkale 2.9.2026 15:30 1.000 TL
361 1994 Fiat/Tofaş SAHİN 1.6 Konya 2.9.2026 15:30 1.000 TL
362 2017 Motorsiklet TITANIC 150 S Afyonkarahisar 2.9.2026 15:30 1.000 TL
363 2005 Peugeot 206 XT 1.4 16V Afyonkarahisar 2.9.2026 15:30 1.000 TL
364 1999 Fiat/Tofaş SIENA 1.4 Afyonkarahisar 2.9.2026 15:30 1.000 TL
365 2001 Renault CLIO SYMBOL 1.4 RNA Sivas 2.9.2026 15:30 1.000 TL
366 2017 Hyundai i20 1.4 CRDI Diyarbakır 2.9.2026 15:30 1.000 TL
367 2023 Motorsiklet VIESTE 249 Şehir Seç 2.9.2026 15:30 1.000 TL
368 2006 Opel ASTRA HB 1.3 CDTİ Hatay 2.9.2026 15:30 1.000 TL
369 2022 Fiat/Tofaş EGEA SEDAN 1.4 FIRE 95 Adana 2.9.2026 15:30 1.000 TL
370 2017 Renault MEGANE SEDAN 1.5 DCI 110 Kayseri 2.9.2026 15:30 1.000 TL
371 2012 Toyota AURIS 1.4 D-4D Samsun 2.9.2026 15:30 1.000 TL
372 2000 Citroen SAXO 1.5D Denizli 2.9.2026 15:30 1.000 TL
373 2009 Citroen JUMPER 2.2 HDI L4H2 Şehir Seç 2.9.2026 15:30 1.000 TL
374 2018 Toyota COROLLA 1.6 Aydın 2.9.2026 15:30 1.000 TL
375 2023 Motorsiklet MT 25 Şehir Seç 2.9.2026 15:30 1.000 TL
376 2012 Mercedes SPRINTER 315 CDI 16+1 Batman 2.9.2026 15:30 1.000 TL
377 2013 Mercedes CEKICI AXOR 1840 LS E5 Gaziantep 2.9.2026 15:30 1.000 TL
378 2024 Honda PCX 125 Gaziantep 2.9.2026 15:30 1.000 TL
379 2020 Ford CEKICI F-MAX Şehir Seç 2.9.2026 15:30 1.000 TL
380 2003 Volkswagen BORA 1.9 TDI Şehir Seç 2.9.2026 15:30 1.000 TL
381 2017 Isuzu N-WIDE LONG KAMYONET Bolu 2.9.2026 15:30 1.000 TL
382 2020 Renault SYMBOL JOY 1.0 TCE ECO Edirne 2.9.2026 15:30 1.000 TL
383 2024 Fiat/Tofaş EGEA SEDAN 1.4 FIRE Bingöl 2.9.2026 15:30 1.000 TL
384 2012 Skoda SUPERB 1.6 TDI Ankara 2.9.2026 15:30 1.000 TL
385 1996 Fiat/Tofaş UNO SX Tokat 2.9.2026 15:30 1.000 TL
386 2025 Honda FORZA 250 Samsun 2.9.2026 15:30 1.000 TL
387 2026 Toyota COROLLA 1.5 DREAM Balıkesir 2.9.2026 15:30 1.000 TL
388 1997 Ford TRANSİT KAMYONET Şehir Seç 2.9.2026 15:30 1.000 TL
389 2006 Fiat/Tofaş ALBEA 1.3 MULTIJET Samsun 2.9.2026 15:30 1.000 TL
390 2015 Peugeot 301 1.6 HDI Antalya 2.9.2026 15:30 1.000 TL
391 2023 Opel ASTRA HB 1.2 Şanlıurfa 2.9.2026 15:30 1.000 TL
392 1999 Desoto PD 250 AS Giresun 2.9.2026 15:30 1.000 TL
393 2024 Mg HS 1.5T (170) Bursa 2.9.2026 15:30 1.000 TL
394 2023 Motorsiklet PS5 125 İzmir 2.9.2026 15:30 1.000 TL
395 2021 Dorse/Römork HASTRAILER SÜT TANKERİ Denizli 2.9.2026 15:30 1.000 TL
396 2017 Mitsubishi L200 CIFT KABIN KAMYONET Diyarbakır 2.9.2026 15:30 1.000 TL
397 2004 Fiat/Tofaş PALIO 1.3 MULTIJET Kayseri 2.9.2026 15:30 1.000 TL
398 2016 Bmw 320i ED SEDAN Ankara 2.9.2026 15:30 1.000 TL
399 2016 Renault CLIO HB 1.5 DCI 75 Nevşehir 2.9.2026 15:30 1.000 TL
400 2023 Motorsiklet PRIDE 125 Adana 2.9.2026 15:30 1.000 TL
401 2007 Toyota COROLLA 1.4 D 4D TERRA Şehir Seç 2.9.2026 15:30 1.000 TL
402 2021 Opel CROSSLAND 1.5 DIZEL Muğla 2.9.2026 15:30 1.000 TL
403 2024 Motorsiklet JOYMAX Z+ 250 Şehir Seç 2.9.2026 15:30 1.000 TL
404 2010 Opel ASTRA HB 1.3 CDTi Kocaeli 2.9.2026 15:30 1.000 TL
405 2007 Hyundai GETZ 1.4 Şehir Seç 2.9.2026 15:30 1.000 TL
406 2024 Motorsiklet 250 SR İstanbul 2.9.2026 15:30 1.000 TL
407 2008 Fiat/Tofaş PALIO VAN 1.3 MULTIJET Aydın 2.9.2026 15:30 1.000 TL
408 1993 Fiat/Tofaş DOGAN SL Antalya 2.9.2026 15:30 1.000 TL
409 2007 Kia SORENTO 2.5 D Malatya 2.9.2026 15:30 1.000 TL
410 2025 Peugeot 2008 1.2 PURETECH 130 Elazığ 2.9.2026 15:30 1.000 TL
411 1991 Fiat/Tofaş SAHIN 1.6 Sakarya 2.9.2026 15:30 1.000 TL
412 2000 Peugeot 306 PLATINUM 1.6 Çanakkale 2.9.2026 15:30 1.000 TL
413 2010 Volkswagen PASSAT 2.0 TDI COMFORTLINE İzmir 2.9.2026 15:30 1.000 TL
414 2011 Dorse/Römork TENTELİ YARI RÖMORK Kocaeli 2.9.2026 15:30 1.000 TL
415 2011 Volkswagen POLO 1.4 (85) Antalya 2.9.2026 15:30 1.000 TL
416 2001 Mazda B 2500 CIFT KABIN SDX KAMYONET Şehir Seç 2.9.2026 15:30 1.000 TL
417 2014 Renault TRAFIC PANELVAN 6M3 2.0 DCI 115 Antalya 2.9.2026 15:30 1.000 TL
418 2016 Fiat/Tofaş EGEA HB 1.6 M.JET 120 Tekirdağ 2.9.2026 15:30 1.000 TL
419 2001 Renault R19 EUROPA RTE 1.6i ALIZE Kahramanmaraş 2.9.2026 15:30 1.000 TL
420 2006 Fiat/Tofaş PUNTO 1.3 MULTIJET 70 Antalya 2.9.2026 15:30 1.000 TL
421 2019 Toyota COROLLA 1.6 SEDAN Manisa 2.9.2026 15:30 1.000 TL
422 2013 Peugeot 2008 1.6 E-HDİ 92 Malatya 2.9.2026 15:30 1.000 TL
423 2023 Motorsiklet SPONTINI 110 İzmir 2.9.2026 15:30 1.000 TL
424 2008 Ford FOCUS 1.6 TDCi Şanlıurfa 2.9.2026 15:30 1.000 TL
425 2016 Ford TOURNEO COURIER 1.6 TDCI Diyarbakır 2.9.2026 15:30 1.000 TL
426 2004 Toyota COROLLA 1.6 SOL SEDAN (Y) Bursa 2.9.2026 15:30 1.000 TL
427 2024 Renault CLIO 1,0 TCE İstanbul 2.9.2026 15:30 1.000 TL
428 1993 Renault R9 BROADWAY 1.4 Şehir Seç 2.9.2026 15:30 1.000 TL
429 2020 Mercedes E 200 D Ankara 2.9.2026 15:30 1.000 TL
430 2013 Ford T.CONNECT KOMBI K210S GLX SILVER Konya 2.9.2026 15:30 1.000 TL
431 2006 Fiat/Tofaş ALBEA 1.3 MULTIJET DYNAMIC İstanbul 2.9.2026 15:30 1.000 TL
432 2024 Ford TOURNEO COURIER 1.0 ECOBOOST Bitlis 2.9.2026 15:30 1.000 TL
433 2023 Kia STONIC 1,4 MPI Uşak 2.9.2026 15:30 1.000 TL
434 2018 Peugeot 301 1.6 HDI İstanbul 2.9.2026 15:30 1.000 TL
435 2013 Volkswagen GOLF VII 1.6 TDI Şehir Seç 2.9.2026 15:30 1.000 TL
436 2010 Peugeot PARTNER ORIGIN 1.6 HDI Eskişehir 2.9.2026 15:30 1.000 TL
437 2011 Toyota AURIS 1.4 D 4D COMFORT EXTRA M/M Sivas 2.9.2026 15:30 1.000 TL
438 2023 Mg ZS 1.0T İstanbul 2.9.2026 15:30 1.000 TL
439 2011 Fiat/Tofaş ALBEA SOLE 1.3 MULTIJET DYNAMIC Kocaeli 2.9.2026 15:30 1.000 TL
440 2024 Honda PCX 125 Balıkesir 2.9.2026 15:30 1.000 TL
441 2024 Peugeot RIFTER 1.5 BLUEHDI 130 Elazığ 2.9.2026 15:30 1.000 TL
442 2008 Citroen BERLINGO COMBİ 1.6 HDI Samsun 2.9.2026 15:30 1.000 TL
443 2011 Karsan J10 14+1 MINIBUS Batman 2.9.2026 15:30 1.000 TL
444 2007 Ford T. CONNECT KOMBI K210S 1.8 TDCi Ankara 2.9.2026 15:30 1.000 TL
445 2024 Honda PCX 125 İstanbul 2.9.2026 15:30 1.000 TL
446 2017 Citroen C4 CACTUS 1.2 E-VTI 82 İstanbul 2.9.2026 15:30 1.000 TL
447 1993 Suzuki SWIFT 1.0 GL İstanbul 2.9.2026 15:30 1.000 TL
448 2025 Motorsiklet MAX PRO Şehir Seç 2.9.2026 15:30 1.000 TL
449 2014 Fiat/Tofaş DOBLO COMBI 1.3 M.JET Mersin 2.9.2026 15:30 1.000 TL
450 2016 Toyota COROLLA 1.33 Şehir Seç 2.9.2026 15:30 1.000 TL
451 2024 Toyota COROLLA 1.5 Aydın 2.9.2026 15:30 1.000 TL
452 2011 Toyota AURIS 1.4 D Kayseri 2.9.2026 15:30 1.000 TL
453 2024 Honda PCX 125 İstanbul 2.9.2026 15:30 1.000 TL
454 2024 Motorsiklet SPEED 400 Şehir Seç 2.9.2026 15:30 TL
455 2011 Ford FIESTA 1.25i Sakarya 2.9.2026 15:30 1.000 TL
456 1998 Peugeot 306 GRIFFE 1.6 Şehir Seç 2.9.2026 15:30 1.000 TL
457 2003 Bmw 520 İA Şehir Seç 2.9.2026 15:30 1.000 TL
458 2013 Fiat/Tofaş DUCATO VAN MAXI 2.3 MULTIJET Şehir Seç 2.9.2026 15:30 1.000 TL
459 2017 Mercedes C 200 D 1.6 Şanlıurfa 2.9.2026 15:30 1.000 TL
460 2012 Volkswagen JETTA 1.6 TDI Antalya 2.9.2026 15:30 1.000 TL
461 2008 Hyundai STAREX S CRDI Mersin 2.9.2026 15:30 1.000 TL
462 2024 Motorsiklet RAYZR Denizli 2.9.2026 15:30 1.000 TL
463 2022 Motorsiklet JET 14 Muğla 2.9.2026 15:30 1.000 TL
464 2004 Nissan MICRA 1.2 TEKNA 5 KAPI OV Kocaeli 2.9.2026 15:30 1.000 TL
465 2009 Peugeot 308 COMFORT 1.6 HDI AUTO6R Şehir Seç 2.9.2026 15:30 1.000 TL
466 2000 Opel ZAFIRA 1.6 Şanlıurfa 2.9.2026 15:30 1.000 TL
467 2024 Motorsiklet PULSAR RS 200 Şehir Seç 2.9.2026 15:30 1.000 TL
468 1995 Fiat/Tofaş DOGAN SLX Yozgat 2.9.2026 15:30 1.000 TL
469 2001 Opel VECTRA 1.6i COMFORT İstanbul 2.9.2026 15:30 1.000 TL
470 2011 Fiat/Tofaş FİORİNO COMBİ 1.3 M.JET 75 EMOTİON Antalya 2.9.2026 15:30 1.000 TL
471 2014 Hyundai I20 1.4 CRDİ Denizli 2.9.2026 15:30 1.000 TL
472 2005 Nissan ALMERA 1.5 TEKNA Düzce 2.9.2026 15:30 1.000 TL
473 2014 Volkswagen JETTA 1.6 TDI (105) Diyarbakır 2.9.2026 15:30 1.000 TL
474 2016 Mercedes VİTO TOURER 114 BLUETEC Antalya 2.9.2026 15:30 1.000 TL
475 1996 Toyota COROLLA 1.6 GLi Uşak 2.9.2026 15:30 1.000 TL
476 2021 Ford TOURNEO COURIER KOMBI 1.5 TDCI 100 Erzurum 2.9.2026 15:30 1.000 TL
477 2021 Toyota C-HR 1.8 HYBRİD Yalova 2.9.2026 15:30 1.000 TL
478 1997 Renault R19 EUROPA 1,4 Kahramanmaraş 2.9.2026 15:30 1.000 TL
479 2012 Fiat/Tofaş FIORINO COMBI 1.3 M.JET Konya 2.9.2026 15:30 1.000 TL
480 2018 Audi A3 SEDAN 1.6 TDI Diyarbakır 2.9.2026 15:30 1.000 TL
481 2023 Hyundai BAYON 1.4 MPI Denizli 2.9.2026 15:30 1.000 TL
482 2022 Motorsiklet ALTAI CARRIER 110 PRO İstanbul 2.9.2026 15:30 1.000 TL
483 2001 Fiat/Tofaş DOGAN 1.6 i.e. Şehir Seç 2.9.2026 15:30 1.000 TL
484 2011 Renault TRAFIC MULTIX GRAND CONFORT (6) 2.0 DCI Eskişehir 2.9.2026 15:30 1.000 TL
485 2012 Audi Q5 2.0 TDI QUATTRO 170 S TRONIC Adana 2.9.2026 15:30 1.000 TL
486 2018 Audi A3 SEDAN 1.6 TDI 116 S TRONIC İstanbul 2.9.2026 15:30 1.000 TL
487 2004 Fiat/Tofaş MAREA 1.6 EXCLUSIVE Samsun 2.9.2026 15:30 1.000 TL
488 2011 Hyundai ACCENT ERA 1.5 CRDi Tekirdağ 2.9.2026 15:30 1.000 TL
489 2022 Renault EXPRESS COMBI 1.5 BLUEHDI 95 Bursa 2.9.2026 15:30 1.000 TL
490 2025 Toyota YARIS 1.5 HYBRID E-CVT FL Bursa 2.9.2026 15:30 1.000 TL
491 2011 Skoda FABIA 1,6 TDI AMBIENTE DINAMIC Adana 2.9.2026 15:30 1.000 TL
492 2025 Citroen BERLINGO 1.5 BLUEHDI 130 Gaziantep 2.9.2026 15:30 1.000 TL
493 2012 Ford FOCUS III TITANIUM 1.6i (125) Adana 2.9.2026 15:30 1.000 TL
494 2012 Citroen C3 1.4 HDI Şehir Seç 2.9.2026 15:30 1.000 TL
495 1998 Renault 12 TSW TOROS 5 VT Karaman 2.9.2026 15:30 1.000 TL
496 2017 Scania S500 Konya 2.9.2026 15:30 1.000 TL
497 1998 Toyota AVENSIS 2.0 SEDAN Van 2.9.2026 15:30 1.000 TL
498 2023 Mercedes A 200 1,33 Muğla 2.9.2026 15:30 1.000 TL
499 2025 Renault MEGANE 1.3 TCE Kocaeli 2.9.2026 15:30 1.000 TL
500 2023 Fiat/Tofaş EGEA 1.4 FIRE Tekirdağ 2.9.2026 15:30 1.000 TL
501 2011 Geely EMGRAND 1.5 Kütahya 2.9.2026 15:30 1.000 TL
502 2016 Mercedes E 200 2.0 AMG 9G-TRONIC İstanbul 2.9.2026 16:30 200.000 TL
503 2023 Tesla MODEL Y LONG RANGE İstanbul 2.9.2026 16:30 1.000 TL
504 2025 Byd SEAL U EV Bursa 2.9.2026 16:30 1.420.000 TL
505 2024 Honda HR-V 1.5 İstanbul 2.9.2026 16:30 1.375.250 TL
506 1997 Renault CLIO 1.8i RSI İstanbul 2.9.2026 16:30 57.750 TL
507 2024 Bmw i4 EDRIVE40 Ankara 2.9.2026 16:30 2.116.000 TL
508 2007 Renault MEGANE 1.5 DCI İzmir 2.9.2026 16:30 89.000 TL
509 2026 Citroen E-C3 AIRCROSS MAX 83KW İstanbul 2.9.2026 16:30 1.000 TL
510 2025 Foton TUNLAND G7 FLAGSHIP İstanbul 2.9.2026 16:30 750 TL
511 2023 Ford TRANSIT 330S İstanbul 2.9.2026 16:30 200.500 TL
512 2020 Renault CLIO TOUCH 1.3 TCE EDC 130 İstanbul 2.9.2026 16:30 1.000 TL
513 2023 Dacia SPRING EXTREME ELEKTRIC 65 Ankara 2.9.2026 16:30 1.000 TL
514 2017 Audi A5 SPORTBACK 1.4 TFSI SPORT S TRONIC Kayseri 2.9.2026 16:30 1.300.000 TL
515 2023 Honda DIO İzmir 2.9.2026 16:30 16.500 TL
516 1994 Honda CIVIC 1.3 L Denizli 2.9.2026 16:30 1.000 TL
517 2019 Bmw 320i Afyonkarahisar 2.9.2026 16:30 952.500 TL
518 2005 Volkswagen POLO 1.4 TRENDLINE Muğla 2.9.2026 16:30 1.000 TL
519 2022 Honda PCX 125 Hatay 2.9.2026 16:30 1.000 TL
520 2021 Honda CIVIC 1,6İ VTEC Ankara 2.9.2026 16:30 851.500 TL
521 1993 Toyota COROLLA 1.6 XL Adana 2.9.2026 16:30 7.000 TL
522 2022 Fiat/Tofaş FIORINO CARGO 1.3 M.JET Tekirdağ 2.9.2026 16:30 190.000 TL
523 2015 Fiat/Tofaş 500X 1,6 MULTİJET Adana 2.9.2026 16:30 20.000 TL
524 2008 Peugeot 207 1,4 TRENDY Kayseri 2.9.2026 16:30 1.000 TL
525 2011 Toyota COROLLA 1,6 COMFORT İstanbul 2.9.2026 16:30 1.000 TL
526 2023 Motorsiklet DOMINAR D 400 Ankara 2.9.2026 16:30 1.000 TL
527 2011 Fiat/Tofaş FIORINO CARGO 1.3 MULTIJET Kayseri 2.9.2026 16:30 1.000 TL
528 2021 Ford TOURNEO COURIER 1,5 TDCİ Mersin 2.9.2026 16:30 1.000 TL
529 2011 Volkswagen GOLF VI 1.4 TSI TRENDLINE Muğla 2.9.2026 16:30 1.000 TL
530 2016 Dacia DOKKER VAN 1,5 DCİ Muğla 2.9.2026 16:30 1.000 TL
531 2023 Motorsiklet PULSAR N 250 Kocaeli 2.9.2026 16:30 1.000 TL
532 2025 Motorsiklet RSX3 125 Diyarbakır 2.9.2026 16:30 1.000 TL
533 2024 Motorsiklet NMAX 155 Antalya 2.9.2026 16:30 1.000 TL
534 2024 Honda PCX 125 Muğla 2.9.2026 16:30 1.000 TL
535 2021 Honda DIO Balıkesir 2.9.2026 16:30 1.000 TL
536 2023 Ford TRANSIT PANELVAN Elazığ 2.9.2026 16:30 352.500 TL
537 2021 Honda CIVIC 1,6İ VTEC Nevşehir 2.9.2026 16:30 1.000 TL
538 2006 Citroen C4 SX 1.6i Yalova 2.9.2026 16:30 26.500 TL
539 2007 Renault SYMBOL JOY LPG 1.2 16V 75 Kırşehir 2.9.2026 16:30 26.000 TL
540 2011 Ford TOURNEO CONNECT K210S 1.8 TDCi İzmir 2.9.2026 16:30 20.000 TL
541 2013 Mitsubishi L200 CIFT KABIN KAMYONET Samsun 2.9.2026 16:30 1.000 TL
542 2015 Opel CORSA 5 KAPI ESSENTIA 1.4 90 OV Gaziantep 2.9.2026 16:30 156.000 TL
543 2015 Volkswagen GOLF 1.2 TSI BMT 110 COMFORTLINE Tokat 2.9.2026 16:30 1.000 TL
544 2002 Volkswagen BORA VARIANT 1.6 COMFORTLINE Tokat 2.9.2026 16:30 1.000 TL
545 2008 Ford FIESTA TITANIUM X ICA 1.4i 96 Antalya 2.9.2026 16:30 40.000 TL
546 2008 Toyota COROLLA SEDAN 1.4 D-4D COMFORT Burdur 2.9.2026 16:30 11.000 TL
547 2012 Chevrolet AVEO HB 1.4 16V LT Uşak 2.9.2026 16:30 500 TL
548 2020 Toyota COROLLA 1.8 HYBRID DREAM E-CVT Ankara 2.9.2026 16:30 300.000 TL
549 2022 Peugeot 3008 GT 1.5 BLUEHDI 130 EAT8 Ankara 2.9.2026 16:30 900.000 TL
550 2024 Renault CLIO EVOLUTION 1.0 TCE X-TRONIC 90 İstanbul 2.9.2026 16:30 590.000 TL
551 2008 Fiat/Tofaş DOBLO COMBI 1.3 MULTIJET PREMIO İstanbul 2.9.2026 16:30 1.000 TL
552 2024 Honda CITY 4D 1.5 EXECUTIVE AT İstanbul 2.9.2026 16:30 302.000 TL
553 2021 Citroen C3 FEEL 1.2 PURETECH 83 S&S İstanbul 2.9.2026 16:30 1.000 TL
554 2011 Volvo S40 1.6 Sivas 2.9.2026 16:30 9.000 TL
555 2013 Ford FOCUS III TREND 1.6 TDCI (95) 4K Nevşehir 2.9.2026 16:30 1.000 TL
556 2005 Volkswagen BORA 1.6 16V PASIFIC Ankara 2.9.2026 16:30 1.000 TL
557 2016 Renault TALISMAN ICON 1.6 DCI 130 EDC İstanbul 2.9.2026 16:30 150.500 TL
558 2013 Nissan QASHQAI +2 1.5 DCI TEKNA PACK İstanbul 2.9.2026 16:30 1.000 TL
559 2022 Motorsiklet RKS TNT202 Rize 2.9.2026 16:30 500 TL
560 2024 Motorsiklet MOTOLUX CEO110 İstanbul 2.9.2026 16:30 500 TL
561 2017 Dacia DOKKER COMBI STEPWAY 1.5 DCI 90 Konya 2.9.2026 16:30 1.000 TL
562 2011 Citroen C3 1.4 HDI CONFORT Ankara 2.9.2026 16:30 1.000 TL
563 2025 Motorsiklet KUBA AZ50 Kocaeli 2.9.2026 16:30 500 TL
564 1998 Volkswagen PASSAT 1.8 TURBO COMFORT Kayseri 2.9.2026 16:30 1.000 TL
565 2024 Motorsiklet TVS RAIDER Ankara 2.9.2026 16:30 1.000 TL
566 2011 Volkswagen JETTA 1.6 TDI (105) TRENDLINE İstanbul 2.9.2026 16:30 500 TL
567 2011 Renault MEGANE COUPE DYNAMIQUE 1.5 DCI Antalya 2.9.2026 16:30 500 TL
568 2020 Fiat/Tofaş EGEA SEDAN URBAN PLUS 1.4 FIRE 95 E6D Kocaeli 2.9.2026 16:30 500 TL
569 2014 Bmw 320I SEDAN (170) EFFECIENT DYNAMICS MODERN İstanbul 2.9.2026 16:30 3.500 TL
570 2024 Bmw İ5 EDRIVE40 M SPORT (160KW) İstanbul 2.9.2026 16:30 3.000 TL
571 2017 Audi A3 SPORTBACK 1.0 TFSI 116 DYNAMIC S TRONIC PI İstanbul 2.9.2026 16:30 1.500 TL
572 2017 Opel INSIGNIA NB 1.6D AT6 SPORT İstanbul 2.9.2026 16:30 2.000 TL
573 2008 Ssangyong ACTYON SPORTS 2.0 OV Yalova 2.9.2026 16:30 1.500 TL
574 2011 Peugeot BIPPER KOMBI OUTDOOR PLUS 1.4 HDI Aydın 2.9.2026 16:30 1.500 TL
575 2008 Ford FIESTA 1.4I COMFORT Ordu 2.9.2026 16:30 1.500 TL
576 2004 Renault MEGANE II SEDAN DYNAMIQUE 1.5 DCI Gaziantep 2.9.2026 16:30 500 TL
577 2024 Motorsiklet HONDA PCX 125 Ordu 2.9.2026 16:30 2.000 TL
578 2024 Dacia DUSTER ESSENTIAL BLUE DCI 115 4X4 Hatay 2.9.2026 16:30 5.500 TL
579 2025 Kia STONIC ELEGANCE 1.0TGDI 100AT İstanbul 2.9.2026 16:30 525.000 TL
580 2000 Hyundai ELANTRA 1.6 GLS OV (ESKI KASA) Kayseri 2.9.2026 16:30 500 TL
581 2009 Citroen NEMO PANELVAN 1.4 HDI Erzurum 2.9.2026 16:30 500 TL
582 2013 Hyundai IX35 1.6 GDI ELITE Tokat 2.9.2026 16:30 65.000 TL
583 2002 Peugeot 307 1.6 XR İstanbul 2.9.2026 16:30 500 TL
584 2011 Hyundai ACCENT ERA 1.4 TEAM İstanbul 2.9.2026 16:30 1.000 TL
585 2007 Citroen C5 SXPK 1.6 HDI İstanbul 2.9.2026 16:30 500 TL
586 2013 Motorsiklet ARORA AR 150 Malatya 2.9.2026 16:30 500 TL
587 2011 Motorsiklet KUBA XY100E Hatay 2.9.2026 16:30 500 TL
588 2016 Honda PCX 150 Isparta 2.9.2026 16:30 1.000 TL
589 2006 Ford FIESTA 1.4 TDCi COMFORT Isparta 2.9.2026 16:30 1.000 TL
590 2025 Motorsiklet 125 R Samsun 2.9.2026 16:30 1.000 TL
591 2024 Citroen JUMPER MINIBUS 16+1 2.2 HDI İstanbul 2.9.2026 16:30 1.000 TL
592 2011 Renault MEGANE HB 1.5 DCI Kocaeli 2.9.2026 16:30 1.000 TL
593 2011 Renault LATITUDE 1.5 DCI İstanbul 2.9.2026 16:30 1.000 TL
594 2008 Volkswagen POLO 1.4 Bursa 2.9.2026 16:30 1.000 TL
595 2018 Dacia LODGY 1.5 DCI Tekirdağ 2.9.2026 16:30 100.000 TL
596 2021 Honda DIO İstanbul 2.9.2026 16:30 1.000 TL
597 2012 Renault SYMBOL 1.5 DCI Bursa 2.9.2026 16:30 76.500 TL
598 2023 Motorsiklet JOYMAX Z 250 Bilecik 2.9.2026 16:30 1.500 TL
599 1992 Fiat/Tofaş SAHIN 5 VITES Antalya 2.9.2026 16:30 5.000 TL
600 2014 Audi A3 SEDAN 1.6 TDI Diyarbakır 2.9.2026 16:30 1.000 TL
601 2021 Kia SPORTAGE 1.6 COOL Bursa 2.9.2026 16:30 1.000 TL
602 2005 Renault CLIO SYMBOL 1.4 Karaman 2.9.2026 16:30 1.000 TL
603 2015 Audi A4 SEDAN 2.0 TDI Tekirdağ 3.9.2026 15:15 500 TL
604 2023 Ford KUGA 1.5 ECOBOOST Hatay 3.9.2026 15:15 1.000 TL
605 2024 Ford TOURNEO COURIER 1.5 DİZEL Adana 3.9.2026 15:15 1.000 TL
606 2013 Kia SPORTAGE 1.6 Konya 3.9.2026 15:15 1.000 TL
607 2015 Dacia DOKKER COMBI AMBIANCE 1.5 DCI Mardin 3.9.2026 15:15 226.000 TL
608 2016 Opel ASTRA HB 1.6 DIZEL Bursa 3.9.2026 15:15 1.000 TL
609 2024 Dacia SANDERO STEPWAY 1.0 TCE Ankara 3.9.2026 15:15 1.000 TL
610 2025 Fiat/Tofaş SCUDO 1.5 M.JET Muğla 3.9.2026 15:15 1.000 TL
611 2024 Mercedes VITO TOURER 114 CDI PRO İstanbul 3.9.2026 15:15 1.051.000 TL
612 2022 Skoda KAMIQ 1.5 TSI PREMIUM Kırıkkale 3.9.2026 15:15 1.072.000 TL
613 2018 Volkswagen TIGUAN 1.6 TDI COMFORTLİNE Mersin 3.9.2026 15:15 1.000 TL
614 2016 Volkswagen POLO 1.2 TSI İstanbul 3.9.2026 15:15 730.500 TL
615 2022 Renault CLIO JOY 1.0 TCE Sivas 3.9.2026 15:15 420.000 TL
616 2022 Mercedes CEKICI ACTROSS 1845 LS 4x2 FL Uşak 3.9.2026 15:15 1.676.000 TL
617 2025 Byd SEAL U DM-I Mersin 3.9.2026 15:15 1.012.000 TL
618 2016 Ford TRANSIT Ankara 3.9.2026 15:15 1.000 TL
619 2023 Alfa Romeo TONALE 1.3 HYBRID İzmir 3.9.2026 15:15 110.000 TL
620 2008 Isuzu NPR KAMYON Tekirdağ 3.9.2026 15:15 1.000 TL
621 2019 Iveco DAILY KAMYON 70 C 15 Antalya 3.9.2026 15:15 365.500 TL
622 2010 Ford FOCUS 1.6 Ankara 3.9.2026 15:15 163.000 TL
623 2021 Renault MEGANE SEDAN JOY 1.3 TCE İstanbul 3.9.2026 15:15 349.000 TL
624 2016 Ford RANGER XLT 2.2 TDCI Erzurum 3.9.2026 15:15 495.000 TL
625 2019 Mercedes KAMYON ATEGO 2124 Tekirdağ 3.9.2026 15:15 1.000 TL
626 2011 Opel CORSA 1.4i TWINPORT Adana 3.9.2026 15:15 210.000 TL
627 2017 Renault MEGANE SEDAN JOY 1.5 DCI Bursa 3.9.2026 15:15 1.000 TL
628 2023 Ford KAMYON 3242S Samsun 3.9.2026 15:15 1.512.000 TL
629 2026 Volvo EX30 EXTENDED RANGE ULTRA 150KW İstanbul 3.9.2026 15:15 1.000 TL
630 2021 Skoda OCTAVIA 1.0 TSI e-TEC İstanbul 3.9.2026 15:15 1.000 TL
631 2024 Chery TIGGO 8 PRO MAX 1.6 T-GDI Mardin 3.9.2026 15:15 1.000 TL
632 2016 Volkswagen GOLF 1.6 TDI BMT 110 HIGHLINE DSG Tekirdağ 3.9.2026 15:30 1.000 TL
633 2007 Opel CORSA 1.3 CDTi 5 KAPI COSMO İstanbul 3.9.2026 15:30 1.000 TL
634 2012 Renault CEKICI PREMIUM 460.18 T 4x2 Kayseri 3.9.2026 15:30 1.000 TL
635 1997 Volkswagen POLO 1.6 4 KAPI Ankara 3.9.2026 15:30 1.000 TL
636 2018 Honda ACTİVA S Bursa 3.9.2026 15:30 1.000 TL
637 2013 Mercedes CEKICI AXOR 1840 LS E5 Gaziantep 3.9.2026 15:30 1.000 TL
638 2006 Honda CR-V 2.0 i VTEC EXECUTIVE İstanbul 3.9.2026 15:30 1.000 TL
639 2004 Ford FOCUS C-MAX 1.6i TREND 5 KAPI İstanbul 3.9.2026 15:30 1.000 TL
640 2016 Citroen C-ELYSEE 1.6 HDI 92 CONFORT Kahramanmaraş 3.9.2026 15:30 1.000 TL
641 2025 Byd SEAL DESIGN İstanbul 3.9.2026 15:30 1.000 TL
642 2024 Honda NSS250A FORZA 250 Denizli 3.9.2026 15:30 1.000 TL
643 2009 Ford T.CONNECT KOMBI 1.8 TDCi (110) Nevşehir 3.9.2026 15:30 1.000 TL
644 2003 Peugeot PARTNER 1.9D Kayseri 3.9.2026 15:30 1.000 TL
645 2008 Volkswagen POLO 1.4 TDI (70) TRENDLINE Ankara 3.9.2026 15:30 1.000 TL
646 1999 Nissan SKYSTAR 4X2 Çankırı 3.9.2026 15:30 1.000 TL
647 2018 Motorsiklet TRENDY 50 Kayseri 3.9.2026 15:30 1.000 TL
648 2026 Bmw iX1 EDRIVE20 SPORT LINE İstanbul 3.9.2026 15:30 1.000 TL
649 2025 Motorsiklet ROSA 50 Zonguldak 3.9.2026 15:30 1.000 TL
650 2012 Bmc PRO 522 6x2 Şehir Seç 3.9.2026 15:30 1.000 TL
651 2001 Honda CIVIC 1.6 iES Zonguldak 3.9.2026 15:30 1.000 TL
652 2016 Fiat/Tofaş EGEA 1.6 E-TORQ Şehir Seç 3.9.2026 15:30 1.000 TL
653 1995 Renault 12 TSW Balıkesir 3.9.2026 15:30 1.000 TL
654 2023 Motorsiklet BITTER 50 PRO İzmir 3.9.2026 15:30 1.000 TL
655 2024 Motorsiklet APS2 Balıkesir 3.9.2026 15:30 1.000 TL
656 2022 Motorsiklet PULSAR RS 200 Ankara 3.9.2026 15:30 1.000 TL
657 2010 Toyota COROLLA SEDAN 1.6 Düzce 3.9.2026 15:30 1.000 TL
658 1999 Toyota COROLLA 1.3 BASE Ordu 3.9.2026 15:30 1.000 TL
659 2015 Motorsiklet VESPA GTS 250 Trabzon 3.9.2026 15:30 1.000 TL
660 2010 Iveco EUROCARGO 150 E 21 Erzurum 3.9.2026 15:30 1.000 TL
661 1993 Fiat/Tofaş ŞAHIN 1.6 Aydın 3.9.2026 15:30 1.000 TL
662 1998 Mazda 626 2.0i SEDAN Erzurum 3.9.2026 15:30 1.000 TL
663 2017 Nissan JUKE 1.5 DCI SPECIAL EDITION Mersin 3.9.2026 15:30 1.000 TL
664 2015 Dacia DOKKER AMBIANCE 1.5 DCI 90 İstanbul 3.9.2026 15:30 1.000 TL
665 2005 Citroen BERLINGO X 1.9D COMBI Ankara 3.9.2026 15:30 1.000 TL
666 2004 Volkswagen TRANSPORTER CITYVAN 2.5 Ankara 3.9.2026 15:30 1.000 TL
667 2008 Toyota COROLLA SEDAN 1.6 İstanbul 3.9.2026 15:30 1.000 TL
668 2026 Motorsiklet 250 SR Ankara 3.9.2026 15:30 1.000 TL
669 2004 Ford FOCUS 1.6 GHIA SEDAN Malatya 3.9.2026 15:30 1.000 TL
670 2023 Motorsiklet 250 NK İzmir 3.9.2026 15:30 1.000 TL
671 2023 Ford TOURNEO COURIER KOMBI 1.5 TDCI Mersin 3.9.2026 15:30 1.000 TL
672 2015 Motorsiklet X MAX 250 İzmir 3.9.2026 15:30 1.000 TL
673 1993 Fiat/Tofaş SAHIN 1.6 Çanakkale 3.9.2026 15:30 1.000 TL
674 2004 Renault MASTER 2.5 DCI Bursa 3.9.2026 15:30 1.000 TL
675 2015 Ford TRANSIT Ordu 3.9.2026 15:30 1.000 TL
676 2008 Mitsubishi CANTER KAMYONET FE 711 Erzurum 3.9.2026 15:30 1.000 TL
677 2006 Mercedes ACTROS 1844 Denizli 3.9.2026 15:30 1.000 TL
678 2025 Honda ADV 350A İstanbul 3.9.2026 15:30 1.000 TL
679 2011 Audi A3 SPORTBACK 1.4 TFSI Bursa 3.9.2026 15:30 1.000 TL
680 2017 Skoda OCTAVIA 1.6 TDI Elazığ 3.9.2026 15:30 1.000 TL
681 2021 Motorsiklet CAPPUCINO 50 İstanbul 3.9.2026 15:30 1.000 TL
682 2007 Fiat/Tofaş ALBEA SOLE 1.4 DYNAMIC Muğla 3.9.2026 15:30 1.000 TL
683 2012 Ford TRANSIT 16+1 Diyarbakır 3.9.2026 15:30 1.000 TL
684 2008 Honda CIVIC HB 1.8 Kocaeli 3.9.2026 15:30 1.000 TL
685 2004 Renault MEGANE 1,6 DYNAMIQUE Sivas 3.9.2026 15:30 1.000 TL
686 2024 Fiat/Tofaş SCUDO 1.5 MULTIJET 120 Antalya 3.9.2026 15:30 1.000 TL
687 2026 Fiat/Tofaş EGEA SEDAN 1.6 MJET 130 Van 3.9.2026 15:30 1.000 TL
688 1979 Fiat/Tofaş MURAT 131 1.3 Şehir Seç 3.9.2026 15:30 1.000 TL
689 2004 Ford FOCUS 1.6i COMFORT SEDAN Şehir Seç 3.9.2026 15:30 1.000 TL
690 2024 Motorsiklet KRV 200 TCS İstanbul 3.9.2026 15:30 1.000 TL
691 2002 Honda HR-V 1.6 Amasya 3.9.2026 15:30 1.000 TL
692 2001 Toyota HILUX ÇİFT KABİN Şehir Seç 3.9.2026 15:30 1.000 TL
693 2023 Motorsiklet GRACE 202 İstanbul 3.9.2026 15:30 1.000 TL
694 2023 Motorsiklet PRIDE 125 İstanbul 3.9.2026 15:30 1.000 TL
695 2010 Fiat/Tofaş DOBLO COMBI 1.3 MULTIJET Tokat 3.9.2026 15:30 1.000 TL
696 2021 Toyota COROLLA 1.5 MULTIDRIVE S Osmaniye 3.9.2026 15:30 1.000 TL
697 1994 Fiat/Tofaş DOGAN SLX 1.6 Zonguldak 3.9.2026 15:30 1.000 TL
698 2016 Volkswagen PASSAT 1.6 TDI BMT 120 DSG Kahramanmaraş 3.9.2026 15:30 1.000 TL
699 2011 Nissan QASHQAI 1.6 VISIA 4x2 İzmir 3.9.2026 15:30 1.000 TL
700 2011 Renault MEGANE III HB EXPRESSION 1.5 DCI 105 İstanbul 3.9.2026 15:30 1.000 TL
701 2019 Fiat/Tofaş EGEA EASY 1.4 FIRE 95 Aksaray 3.9.2026 15:30 1.000 TL
702 2018 Fiat/Tofaş EGEA 1.3 M.JET 95 Hatay 3.9.2026 15:30 1.000 TL
703 2025 Dacia SANDERO STEPWAY 1.0 TCE 90 CVT Diyarbakır 3.9.2026 15:30 1.000 TL
704 1996 Fiat/Tofaş KARTAL 1.6 Bursa 3.9.2026 15:30 1.000 TL
705 2024 Motorsiklet MAX T EASY Bursa 3.9.2026 15:30 1.000 TL
706 2012 Toyota YARIS 1.0 LIFE Tekirdağ 3.9.2026 15:30 1.000 TL
707 2015 Mitsubishi L200 CIFT KABIN KAMYONET 4x2 Batman 3.9.2026 15:30 1.000 TL
708 2021 Renault CLIO 1.0 Kocaeli 3.9.2026 15:30 1.000 TL
709 2021 Motorsiklet NEV 50 Kocaeli 3.9.2026 15:30 1.000 TL
710 2025 Byd HAN 380KW Afyonkarahisar 3.9.2026 15:30 1.000 TL
711 2020 Bmw 320i SEDAN 1.6 Bursa 3.9.2026 15:30 1.000 TL
712 2024 Motorsiklet SRK 125 R Mersin 3.9.2026 15:30 1.000 TL
713 1991 Renault R9 BROADWAY L423 Kastamonu 3.9.2026 15:30 1.000 TL
714 2017 Peugeot 2008 1.6 BLUEHDI Mersin 3.9.2026 15:30 1.000 TL
715 2025 Byd SEAL U DM-i Elazığ 3.9.2026 15:30 1.000 TL
716 1998 Hyundai H100 2.5 Muğla 3.9.2026 15:30 1.000 TL
717 2025 Fiat/Tofaş DUCATO VAN Çorum 3.9.2026 15:30 1.000 TL
718 2006 Toyota COROLLA TERRA 1.6 Ankara 3.9.2026 15:30 1.000 TL
719 2015 Seat IBIZA 1.2 TSI Çanakkale 3.9.2026 15:30 1.000 TL
720 1994 Renault R9 BRODWAY 1,4 GTE Manisa 3.9.2026 15:30 1.000 TL
721 2023 Motorsiklet SMART 50 Bartın 3.9.2026 15:30 1.000 TL
722 2025 Motorsiklet 125 DRIFT L CBS Şehir Seç 3.9.2026 15:30 1.000 TL
723 2000 Hyundai ACCENT 1.3 LX Bursa 3.9.2026 15:30 1.000 TL
724 2023 Motorsiklet VSM Samsun 3.9.2026 15:30 1.000 TL
725 2020 Dacia LOGAN 1.5 DCI Antalya 3.9.2026 15:30 1.000 TL
726 2000 Hyundai ACCENT 1.3 Bilecik 3.9.2026 15:30 1.000 TL
727 2014 Opel CORSA 1.2i TWINPORT ESSENTIA Ankara 3.9.2026 15:30 1.000 TL
728 2019 Fiat/Tofaş EGEA 1.3 M.JET 95 Şehir Seç 3.9.2026 15:30 1.000 TL
729 2017 Skoda OCTAVIA 1.6 TDI İstanbul 3.9.2026 15:30 1.000 TL
730 2012 Hyundai i30 1.6 CRDI ELITE OV Ankara 3.9.2026 15:30 1.000 TL
731 1992 Lada SAMARA 1.5 Denizli 3.9.2026 15:30 1.000 TL
732 2022 Opel CROSSLAND 1.2 Kayseri 3.9.2026 15:30 1.000 TL
733 2020 Opel CORSA 1.2 75 Sivas 3.9.2026 15:30 1.000 TL
734 2018 Honda PCX 125 Kayseri 3.9.2026 15:30 1.000 TL
735 2026 Peugeot 2008 1,2 İstanbul 3.9.2026 15:30 1.000 TL
736 2023 Fiat/Tofaş EGEA CROSS 1.6 M.JET Gümüşhane 3.9.2026 15:30 1.000 TL
737 2025 Tesla MODEL Y Muğla 3.9.2026 15:30 1.000 TL
738 2011 Bmw X5 XDRIVE Samsun 3.9.2026 15:30 1.000 TL
739 2022 Bmw 218i ACTIVE TOURER 1.5 136 İstanbul 3.9.2026 15:30 1.000 TL
740 2017 Honda HONDA WW150 İstanbul 3.9.2026 15:30 1.000 TL
741 1989 Renault R 1339 Hatay 3.9.2026 15:30 1.000 TL
742 2014 Dacia LODGY 1.5 DCI Hatay 3.9.2026 15:30 1.000 TL
743 2023 Honda CL 250A Elazığ 3.9.2026 15:30 1.000 TL
744 2017 Skoda RAPID 1.0 TSI Ordu 3.9.2026 15:30 1.000 TL
745 2024 Volkswagen CADDY 2.0 TDI Konya 3.9.2026 15:30 1.000 TL
746 2022 Renault CLIO 1,0 TCE Aksaray 3.9.2026 15:30 1.000 TL
747 2021 Dacia DUSTER 1.5 BLUEDCI Erzurum 3.9.2026 15:30 1.000 TL
748 2023 Peugeot 408 1.2 PURETECH 130 Manisa 3.9.2026 15:30 1.000 TL
749 2025 Byd SEAL Sakarya 3.9.2026 15:30 1.000 TL
750 2017 Renault SYMBOL 1.5 DCI İzmir 3.9.2026 15:30 1.000 TL
751 2020 Fiat/Tofaş DOBLO COMBI 1.3 M.JET Diyarbakır 3.9.2026 15:30 1.000 TL
752 2025 Motorsiklet NMAX 125 Kocaeli 3.9.2026 15:30 1.000 TL
753 2016 Fiat/Tofaş FIORINO COMBI 1.3 M.JET Konya 3.9.2026 15:30 1.000 TL
754 1989 Fiat/Tofaş DOGAN 1.6 Erzurum 3.9.2026 15:30 1.000 TL
755 2011 Opel CORSA 1.2İ TWINPORT Kocaeli 3.9.2026 15:30 1.000 TL
756 2022 Motorsiklet DOLPHIN 125 Denizli 3.9.2026 15:30 1.000 TL
757 2007 Renault KANGOO MULTIX 1.5 DCI EXPRESSION Muğla 3.9.2026 15:30 1.000 TL
758 2016 Fiat/Tofaş DOBLO 1.3 ECOJET 90 Mersin 3.9.2026 15:30 1.000 TL
759 2000 Fiat/Tofaş MAREA 1.6 Kastamonu 3.9.2026 15:30 1.000 TL
760 2006 Citroen C5 SX 2.0 HDI Kocaeli 3.9.2026 15:30 1.000 TL
761 2023 Renault CLIO 1.0 TCE X-TRONIC 90 Malatya 3.9.2026 15:30 1.000 TL
762 2026 Bmw R 1300 GS Bursa 3.9.2026 15:30 1.000 TL
763 2015 Mercedes A 180 CDI 1.5 Sivas 3.9.2026 15:30 1.000 TL
764 2015 Mercedes AXOR 1840 LS Mardin 3.9.2026 15:30 1.000 TL
765 2024 Renault DUSTER 1.2 İzmir 3.9.2026 15:30 1.000 TL
766 2025 Honda NSS250A (FORZA 250) Şehir Seç 3.9.2026 15:30 1.000 TL
767 1993 Fiat/Tofaş DOĞAN 1.6 Burdur 3.9.2026 15:30 1.000 TL
768 2005 Opel ASTRA HB 1.6i Van 3.9.2026 15:30 1.000 TL
769 2022 Renault MASTER PANELVAN L2H2 11M3 150 D-FULL Şehir Seç 3.9.2026 15:30 1.000 TL
770 2023 Skoda OCTAVIA 1.5 TSI Ankara 3.9.2026 15:30 1.000 TL
771 2019 Isuzu NPR 10 LONG KAMYON Manisa 3.9.2026 15:30 1.000 TL
772 2024 Renault DUSTER 1.6 E-TECH FULL HYBRID 145 Nevşehir 3.9.2026 15:30 1.000 TL
773 2024 Dacia SANDERO STEPWAY 1.0 TCE Mersin 3.9.2026 15:30 1.000 TL
774 2026 Toyota COROLLA 1.5 İzmir 3.9.2026 15:30 1.000 TL
775 2010 Hyundai ACCENT ERA 1.6 SELECT İstanbul 3.9.2026 15:30 1.000 TL
776 2013 Opel ASTRA HB 1.4 Antalya 3.9.2026 15:30 1.000 TL
777 2013 Toyota HILUX 2,5 4X4 Düzce 3.9.2026 15:30 1.000 TL
778 2013 Ford FOCUS 1,6 TDCİ Kayseri 3.9.2026 15:30 1.000 TL
779 2003 Fiat/Tofaş DOBLO 1.9 Niğde 3.9.2026 15:30 1.000 TL
780 2025 Motorsiklet SRK 125 R Ankara 3.9.2026 15:30 1.000 TL
781 2020 Honda HONDA SPACY ALPHA Muğla 3.9.2026 15:30 1.000 TL
782 1992 Renault BROADWAY 1.4 Muğla 3.9.2026 15:30 1.000 TL
783 2026 Bmw 520İ İstanbul 3.9.2026 15:30 1.000 TL
784 2017 Ford TRANSIT CUSTOM Hatay 3.9.2026 15:30 1.000 TL
785 2025 Mercedes CEKICI ACTROS İzmir 3.9.2026 15:30 1.000 TL
786 1996 Renault 19 EUROPA 1.4 RN Ankara 3.9.2026 15:30 1.000 TL
787 2020 Honda CIVIC 1.6 125 OV Balıkesir 3.9.2026 15:30 1.000 TL
788 2017 Motorsiklet TMAX 530 İzmir 3.9.2026 15:30 1.000 TL
789 2016 Bmw 418i GRAN COUPE 1.5 (136) Adana 3.9.2026 15:30 1.000 TL
790 2014 Opel ASTRA HB 1.4 (140) Kocaeli 3.9.2026 15:30 1.000 TL
791 2020 Iveco DAILY SASI KAMYONET 35 C 16 İstanbul 3.9.2026 15:30 1.000 TL
792 2009 Volkswagen TIGUAN 1.4 TSI (150) Aydın 3.9.2026 15:30 1.000 TL
793 2026 Renault CLIO 1.0 HB Antalya 3.9.2026 15:30 1.000 TL
794 2016 Fiat/Tofaş EGEA 1.4 FIRE 95 Erzurum 3.9.2026 15:30 1.000 TL
795 2025 Ford FOCUS 1.5 Bursa 3.9.2026 15:30 1.000 TL
796 2026 Opel CORSA 1.2 100 İstanbul 3.9.2026 15:30 1.000 TL
797 2026 Fiat/Tofaş EGEA 1,6 MULTİJET Antalya 3.9.2026 15:30 1.000 TL
798 2021 Fiat/Tofaş EGEA SEDAN 1.3 M.JET 95 Mersin 3.9.2026 15:30 1.000 TL
799 2012 Ford FIESTA TITANIUM 1.4 TDCi Çorum 3.9.2026 15:30 1.000 TL
800 2023 Fiat/Tofaş SCUDO VAN MAXI BUSINESS 2.0 145 Ankara 3.9.2026 15:30 1.000 TL
801 2024 Ford PUMA 1,0 ECOBOOST Antalya 3.9.2026 15:30 1.000 TL
802 2025 Audi A6 Antalya 3.9.2026 15:30 1.000 TL
803 2015 Honda CR-V 1.6 DIZEL Tokat 3.9.2026 15:30 1.000 TL
804 2021 Fiat/Tofaş DUCATO 2.3 140 İzmir 3.9.2026 15:30 1.000 TL
805 2023 Mercedes ACTROSS 1845 LS Ankara 3.9.2026 15:30 1.000 TL
806 2019 Motorsiklet 400 NK İstanbul 3.9.2026 15:30 1.000 TL
807 2014 Renault FLUENCE JOY 1.5 DCI 90 Hatay 3.9.2026 15:30 1.000 TL
808 2014 Dacia DOKKER COMBI STEPWAY 1.5 DCI Balıkesir 3.9.2026 15:30 1.000 TL
809 2004 Peugeot BOXER 330 M 2.2 HDI VAN Tokat 3.9.2026 15:30 1.000 TL
810 2019 Fiat/Tofaş EGEA SEDAN 1.3 M.JET Antalya 3.9.2026 15:30 1.000 TL
811 2000 Volkswagen PASSAT 1.8 Erzurum 3.9.2026 15:30 1.000 TL
812 2013 Volkswagen CARAVELLE 2.0 TDI Şehir Seç 3.9.2026 15:30 1.000 TL
813 2024 Chery TIGGO 7 PRO Şehir Seç 3.9.2026 15:30 1.000 TL
814 2025 Mercedes SPRINTER 16+1 Denizli 3.9.2026 15:30 1.000 TL
815 2026 Toyota C-HR 1.8 HYBRID Şanlıurfa 3.9.2026 15:30 1.000 TL
816 2020 Dorse/Römork Schmitz Cargobull FRIGOFRİK TİP SOĞUTUCU İzmir 3.9.2026 15:30 TL
817 2016 Seat LEON 1.2 TSI İstanbul 3.9.2026 15:30 1.000 TL
818 2018 Honda CIVIC 1,6İ DTEC Malatya 3.9.2026 15:30 1.000 TL
819 2009 Renault MEGANE II SEDAN A.TIQUE 1.5 DCI Balıkesir 3.9.2026 15:30 1.000 TL
820 2024 Motorsiklet RAIDER 125 Ankara 3.9.2026 15:30 1.000 TL
821 2017 Renault MEGANE 1,6 Eskişehir 3.9.2026 15:30 1.000 TL
822 2004 Renault KANGOO AUTHENTIQUE 1.5 DCI Çankırı 3.9.2026 15:30 1.000 TL
823 1998 Opel ASTRA 1.4 SEDAN Balıkesir 3.9.2026 15:30 1.000 TL
824 2009 Hyundai GETZ 1.5 CRDi Balıkesir 3.9.2026 15:30 1.000 TL
825 2014 Renault CEKICI PREMIUM 460.18T İzmir 3.9.2026 15:30 1.000 TL
826 2010 Ford MONDEO 1.6i SEDAN İstanbul 3.9.2026 15:30 1.000 TL
827 2024 Motorsiklet CAPPUCINO 125 Batman 3.9.2026 15:30 1.000 TL
828 2024 Citroen C3 1.2 PURETECH İstanbul 3.9.2026 15:30 1.000 TL
829 2025 Ford TOURNEO COURIER 1.0 ECOBOOST İstanbul 3.9.2026 15:30 1.000 TL
830 2014 Audi A4 2.0 TDI Antalya 3.9.2026 15:30 1.000 TL
831 2016 Honda CIVIC 1.5 VTEC Denizli 3.9.2026 15:30 1.000 TL
832 2007 Ford TRANSIT 300 S MINIBUS Van 3.9.2026 15:30 1.000 TL
833 2024 Motorsiklet RAIDER 125 Mersin 3.9.2026 15:30 1.000 TL
834 2026 Peugeot 2008 ALLURE 1.2 HYBRID Çorum 3.9.2026 15:30 1.000 TL
835 2011 Ford FOCUS 1,6 TDCİ TITANIUM Bursa 3.9.2026 15:30 1.000 TL
836 1999 Opel ASTRA 1,6 GL İstanbul 3.9.2026 15:30 1.000 TL
837 2017 Fiat/Tofaş PRATICO KAMYONET 1.3 M.JET Kayseri 3.9.2026 15:30 1.000 TL
838 2021 Fiat/Tofaş EGEA 1,3 MULTİJET İzmir 3.9.2026 15:30 1.000 TL
839 2010 Renault MEGANE 3 HB AUTHENTIQUE 1.5 DCI Çorum 3.9.2026 15:30 1.000 TL
840 2022 Motorsiklet NMAX 125 Düzce 3.9.2026 15:30 1.000 TL
841 2012 Renault FLUENCE 1.5 DCI Diyarbakır 3.9.2026 15:30 1.000 TL
842 2012 Mercedes KAMYON 3340 K Trabzon 3.9.2026 15:30 1.000 TL
843 2016 Renault CLIO HB JOY 1.5 DCI Gaziantep 3.9.2026 15:30 1.000 TL
844 2024 Motorsiklet JUPITER 125 İstanbul 3.9.2026 15:30 1.000 TL
845 2011 Renault FLUENCE 1.5 DCI EXT. (85) Gaziantep 3.9.2026 15:30 1.000 TL
846 2024 Honda PCX 125 Antalya 3.9.2026 15:30 1.000 TL
847 2024 Honda PCX 125 Balıkesir 3.9.2026 15:30 1.000 TL
848 2022 Suzuki GSX-R125 Bursa 3.9.2026 15:30 1.000 TL
849 2012 Renault CLIO HB AUTHENTIQUE EDITION 1.5 DCI 65 E5 Afyonkarahisar 3.9.2026 15:30 1.000 TL
850 2013 Peugeot CITYSTAR 200 Şehir Seç 3.9.2026 15:30 1.000 TL
851 2020 Volvo S60 2.0 B5 AWD Ankara 3.9.2026 15:30 1.000 TL
852 2008 Renault MASTER MİNÜBÜS 16+1 Zonguldak 3.9.2026 15:30 1.000 TL
853 2024 Honda DIO 110 Kayseri 3.9.2026 15:30 1.000 TL
854 2025 Motorsiklet CG50 ULTRA Kırklareli 3.9.2026 15:30 1.000 TL
855 1993 Fiat/Tofaş ŞAHİN 1.6 Kayseri 3.9.2026 15:30 1.000 TL
856 2021 Honda DİO 110 Antalya 3.9.2026 15:30 1.000 TL
857 2025 Motorsiklet PS3 50 CC Kayseri 3.9.2026 15:30 1.000 TL
858 2004 Citroen XSARA 1.4 HDİ Eskişehir 3.9.2026 15:30 1.000 TL
859 2007 Opel CORSA 1.4i TWİNPORT ENJOY Ankara 3.9.2026 15:30 1.000 TL
860 2012 Fiat/Tofaş DOBLO COMBI 1.6 M.JET 105 ELEGANCE Ankara 3.9.2026 15:30 1.000 TL
861 2016 Renault CLIO HB 1.5 DCI 75 Ankara 3.9.2026 15:30 1.000 TL
862 1998 Opel ASTRA 1.6 GLS Samsun 3.9.2026 15:30 1.000 TL
863 1993 Fiat/Tofaş DOGAN SLX Adıyaman 3.9.2026 15:30 1.000 TL
864 2012 Mitsubishi PAJERO 3.2 DID OV Elazığ 3.9.2026 15:30 1.000 TL
865 2020 Kia BONGO TEK KABIN KAMYONET 2.5 Aydın 3.9.2026 15:30 1.000 TL
866 2025 Citroen C4 X 1.2 PURETECH 130 Ankara 3.9.2026 15:30 1.000 TL
867 2021 Ford TRANSIT 410L VAN 170 AMBULANS Ankara 3.9.2026 15:30 1.000 TL
868 2016 Opel ASTRA HB 1.6 DIZEL 136 Diyarbakır 3.9.2026 15:30 1.000 TL
869 2016 Motorsiklet MT 25 Kocaeli 3.9.2026 15:30 1.000 TL
870 2024 Motorsiklet CHIA 125 PRO Balıkesir 3.9.2026 15:30 1.000 TL
871 2023 Motorsiklet VESPA GTS 300 İstanbul 3.9.2026 15:30 1.000 TL
872 2026 Fiat/Tofaş EGEA 1,6 MULTİJET Ordu 3.9.2026 15:30 1.000 TL
873 2001 Fiat/Tofaş DOBLO 1.2 ELX Muğla 3.9.2026 15:30 1.000 TL
874 2009 Renault SYMBOL 1,5 DCİ AUTHENTIQUE Giresun 3.9.2026 15:30 1.000 TL
875 2024 Kgmobılıty MUSSO GRAND D2.2 4x2 Bolu 3.9.2026 15:30 1.000 TL
876 2022 Renault MEGANE SEDAN 1.3 TCE EDC 140 İzmir 3.9.2026 15:30 1.000 TL
877 2011 Fiat/Tofaş LİNEA 1.3 M.JET (90) İstanbul 3.9.2026 15:30 1.000 TL
878 2015 Mazda 3 1.5 İstanbul 3.9.2026 15:30 1.000 TL
879 2019 Hyundai TUCSON 1.6 CRDİ Ordu 3.9.2026 15:30 1.000 TL
880 2018 Peugeot 308 1.6 BLUEHDI 120 Diyarbakır 3.9.2026 15:30 1.000 TL
881 2021 Hyundai BAYON 1.4 MPI 100 Kahramanmaraş 3.9.2026 15:30 1.000 TL
882 2015 Fiat/Tofaş FİORİNO CARGO 1.3 M.JET İzmir 3.9.2026 15:30 1.000 TL
883 2022 Honda PCX 125 İstanbul 3.9.2026 15:30 1.000 TL
884 2024 Opel CORSA 1.2 100 Hatay 3.9.2026 15:30 1.000 TL
885 2019 Audi A3 SPORTBACK 30 1.0 TFSI Şehir Seç 3.9.2026 15:30 1.000 TL
886 2020 Renault MEGANE SEDAN JOY 1.5 BLUEDCI Diyarbakır 3.9.2026 15:30 1.000 TL
887 2020 Renault ZOE Manisa 3.9.2026 15:30 1.000 TL
888 2023 Motorsiklet PULSAR RS 200 Isparta 3.9.2026 15:30 1.000 TL
889 2009 Peugeot PARTNER TEPEE 1.6 HDI Ankara 3.9.2026 15:30 1.000 TL
890 2014 Mercedes A 180 CDI Adana 3.9.2026 15:30 1.000 TL
891 2014 Dacia DOKKER COMBI 1.5 DCI 90 Kahramanmaraş 3.9.2026 15:30 1.000 TL
892 2014 Bmw 420D COUPE Bursa 3.9.2026 15:30 1.000 TL
893 2013 Ford FIESTA 1.5 TDCI Samsun 3.9.2026 15:30 1.000 TL
894 2024 Motorsiklet X MAX 250 Tokat 3.9.2026 15:30 1.000 TL
895 2024 Honda NSS250A FORZA 250 İstanbul 3.9.2026 15:30 1.000 TL
896 2025 Motorsiklet 450 SR Balıkesir 3.9.2026 15:30 1.000 TL
897 1995 Fiat/Tofaş ŞAHİN 1.6 Antalya 3.9.2026 15:30 1.000 TL
898 2023 Bmw CE 04 İstanbul 3.9.2026 15:30 1.000 TL
899 2024 Motorsiklet SAFARI PRO Balıkesir 3.9.2026 15:30 1.000 TL
900 2025 Motorsiklet SHARK 125 Ordu 3.9.2026 15:30 1.000 TL
901 2019 Honda PCX 125 Antalya 3.9.2026 15:30 1.000 TL
902 2009 Ford FOCUS TITANIUM 1.6 TDCi (109) Konya 3.9.2026 15:30 1.000 TL
903 2014 Motorsiklet MT 07 Tekirdağ 3.9.2026 15:30 1.000 TL
904 2018 Motorsiklet X-MAX 125 ABS Çanakkale 3.9.2026 15:30 1.000 TL
905 2004 Fiat/Tofaş PALIO 1.3 MULTIJET ACTIVE Manisa 3.9.2026 15:30 1.000 TL
906 2011 Renault FLUENCE BUSINESS 1.5 DCI (85) Antalya 3.9.2026 15:30 1.000 TL
907 2014 Audi A3 SEDAN 1.6 TDI Kocaeli 3.9.2026 15:30 1.000 TL
908 2020 Motorsiklet XMAX 250 Ankara 3.9.2026 15:30 1.000 TL
909 2024 Motorsiklet RK 125 S İstanbul 3.9.2026 15:30 1.000 TL
910 2022 Motorsiklet DOMİNAR D 400 Ankara 3.9.2026 15:30 1.000 TL
911 2018 Renault MEGANE SEDAN 1.5 DCI İstanbul 3.9.2026 15:30 1.000 TL
912 2013 Opel ASTRA SEDAN 1.4 Kayseri 3.9.2026 15:30 1.000 TL
913 2020 Motorsiklet MT 07 Mersin 3.9.2026 15:30 1.000 TL
914 2023 Motorsiklet SK 100-5 Hatay 3.9.2026 15:30 1.000 TL
915 2014 Ford FIESTA 1.5 TDCI 75 Adana 3.9.2026 15:30 1.000 TL
916 2017 Volkswagen TIGUAN 1.6 TDI SCR BMT 115 HIGHLINE Diyarbakır 3.9.2026 15:30 1.000 TL
917 2016 Ford TRANSIT COURIER VAN 1.5 TDCİ 75 Ankara 3.9.2026 15:30 1.000 TL
918 2017 Volkswagen GOLF 1.6 TDI BMT 115 DSG Ankara 3.9.2026 15:30 1.000 TL
919 2019 Renault MEGANE SEDAN 1.6 16V 115 İzmir 3.9.2026 15:30 1.000 TL
920 2016 Ford FOCUS III MCA 1.5 TDCI Batman 3.9.2026 15:30 1.000 TL
921 2002 Ford FOCUS 1.6i COMFORT SEDAN Kütahya 3.9.2026 15:30 1.000 TL
922 2023 Motorsiklet PULSAR RS 200 Şehir Seç 3.9.2026 15:30 1.000 TL
923 2005 Skoda FABIA 1.4 TDI SPECIAL Kayseri 3.9.2026 15:30 1.000 TL
924 2017 Ford FOCUS III MCA 1.5 TDCI Bitlis 3.9.2026 15:30 1.000 TL
925 2015 Bmw 116d ED Eskişehir 3.9.2026 15:30 1.000 TL
926 2006 Opel ASTRA CLASSIC 1.6i SEDAN Şanlıurfa 3.9.2026 15:30 1.000 TL
927 2017 Ford FOCUS III 1.5 TDCI İstanbul 3.9.2026 15:30 1.000 TL
928 2024 Motorsiklet GPD155A Şehir Seç 3.9.2026 15:30 1.000 TL
929 2025 Renault TRAFIC 2,0 İzmir 3.9.2026 16:30 1.000 TL
930 2020 Fiat/Tofaş EGEA 1,4 FİRE Çanakkale 3.9.2026 16:30 1.000 TL
931 2025 Motorsiklet STRADA 125 Aydın 3.9.2026 16:30 1.000 TL
932 2022 Motorsiklet MT 07 Mersin 3.9.2026 16:30 1.500 TL
933 2014 Volkswagen PASSAT 1.6 TDI BMT İstanbul 3.9.2026 16:30 1.000 TL
934 2021 Motorsiklet VERANO 50 Isparta 3.9.2026 16:30 1.000 TL
935 2010 Opel CORSA 1.3 CDTi Antalya 3.9.2026 16:30 1.000 TL
936 2024 Suzuki UB 125L Manisa 3.9.2026 16:30 1.000 TL
937 2020 Motorsiklet BEVERLY İstanbul 3.9.2026 16:30 1.000 TL
938 2015 Volkswagen CC 1.4 TSI Adana 3.9.2026 16:30 1.000 TL
939 2022 Motorsiklet DASH 125 Trabzon 3.9.2026 16:30 1.000 TL
940 2011 Ford RANGER CIFT KABIN KAMYONET Şehir Seç 3.9.2026 16:30 1.000 TL
941 2006 Ford TRANSIT CONNECT 1,8 TDCİ Bursa 3.9.2026 16:30 1.000 TL
942 2007 Renault SYMBOL 1,5 DCİ AUTHENTIQUE İzmir 3.9.2026 16:30 1.000 TL
943 2004 Peugeot PARTNER 1,9 Bilecik 3.9.2026 16:30 25.000 TL
944 2018 Ford TOURNEO COURIER 1,5 TDCİ Ankara 3.9.2026 16:30 1.000 TL
945 1995 Renault R9 1,6 FAIRWAY Konya 3.9.2026 16:30 1.000 TL
946 2018 Fiat/Tofaş EGEA 1,6 MULTİJET Tokat 3.9.2026 16:30 1.000 TL
947 2011 Fiat/Tofaş FIORINO 1.3 MULTIJET ACTIVE Tekirdağ 3.9.2026 16:30 1.000 TL
948 1992 Fiat/Tofaş KARTAL L Afyonkarahisar 3.9.2026 16:30 1.000 TL
949 1997 Skoda FELICIA COMBI 1,3 Erzurum 3.9.2026 16:30 1.000 TL
950 2005 Honda CIVIC 1.6 ES VTEC 4 KAPI OV (Y) Düzce 3.9.2026 16:30 50.500 TL
951 2001 Volkswagen POLO 1.4 TDI TRENDLINE Ankara 3.9.2026 16:30 1.000 TL
952 2006 Dorse/Römork FRIGOFRIK TIP SO¦U. Mardin 3.9.2026 16:30 1.000 TL
953 2011 Fiat/Tofaş DOBLO COMBI 1.3 ECOJET 90 PREMIO Antalya 3.9.2026 16:30 20.000 TL
954 2023 Motorsiklet MONDIAL 125 DRIFT L CBS Osmaniye 3.9.2026 16:30 1.000 TL
955 2002 Skoda FABIA 1.4i ELEGANCE 101 Ankara 3.9.2026 16:30 1.000 TL
956 2024 Motorsiklet MONDIAL 125 SKUTY Ankara 3.9.2026 16:30 1.000 TL
957 2010 Honda CIVIC SEDAN 1.6 PREMIIUM OV (Y) Ankara 3.9.2026 16:30 150.000 TL
958 1998 Daewoo NUBIRA 2.0 CDX Ankara 3.9.2026 16:30 1.000 TL
959 1990 Renault 9 GTE BROADWAY Şanlıurfa 3.9.2026 16:30 1.000 TL
960 2005 Opel ASTRA HB 1.6i 16V ENJOY Rize 3.9.2026 16:30 50.500 TL
961 2023 Motorsiklet HONDA DIO Tokat 3.9.2026 16:30 8.000 TL
962 2007 Hyundai GETZ 1.4 START Sivas 3.9.2026 16:30 30.500 TL
963 2017 Mercedes AROCS 4142 B 8x4 E6 Antalya 3.9.2026 16:30 1.000 TL
964 2024 Motorsiklet HONDA CB125F İstanbul 3.9.2026 16:30 1.000 TL
965 2023 Motorsiklet RKS FRECCIA 150 Denizli 3.9.2026 16:30 1.000 TL
966 2025 Motorsiklet HONDA 125 İstanbul 3.9.2026 16:30 20.000 TL
967 2023 Renault CAPTUR ICON 1.3 MILD HYBRID EDC 140 İstanbul 3.9.2026 16:30 1.000 TL
968 2012 Ford TRANSIT 370L 13+1 MINIBUS (155) E4 GP Amasya 3.9.2026 16:30 20.000 TL
969 2023 Motorsiklet HONDA NSS250A FORZA 250 İstanbul 3.9.2026 16:30 5.500 TL
970 2009 Mitsubishi LANCER 1.5 INVITE OV İstanbul 3.9.2026 16:30 1.500 TL
971 2024 Motorsiklet SYM ADX 125 E5 İstanbul 3.9.2026 16:30 1.000 TL
972 2025 Motorsiklet KUBA TRENDY 50 (B94) Kocaeli 3.9.2026 16:30 1.000 TL
973 1996 Toyota COROLLA 1.6 XEi (Y) Ankara 3.9.2026 16:30 1.000 TL
974 2018 Chrysler RENEGADE 1.6 120 DDCT NIGHT EAGLE DIZEL E6 İstanbul 3.9.2026 16:30 145.000 TL
975 2025 Fiat/Tofaş EGEA SEDAN URBAN 1.6 M.JET 130 DCT GSR İstanbul 3.9.2026 16:30 746.000 TL
976 2012 Audi A3 SPORTBACK 1.6 İstanbul 3.9.2026 16:30 1.000 TL
977 2015 Volkswagen PASSAT 1.4 TSI ACT BMT 150 COMFORTLINE İstanbul 3.9.2026 16:30 1.000 TL
978 2011 Geely MK FAMILIA 1.5 COMFORT Antalya 3.9.2026 16:30 1.000 TL
979 2024 Toyota COROLLA HYBRID 1.8 DREAM E-CVT FL İstanbul 3.9.2026 16:30 1.500 TL
980 2011 Ford KUGA SELECTIVE 5K 2.0 TDCI 140 P.SHIFT İstanbul 3.9.2026 16:30 1.000 TL
981 2004 Peugeot 206 SW X-DESIGN 1.4 Denizli 3.9.2026 16:30 1.000 TL
982 2001 Bmw 520I 520 IA Erzurum 3.9.2026 16:30 1.000 TL
983 2020 Seat ATECA 1.6 TDI SCR 115 DSG S&S XCELLENCE Gaziantep 3.9.2026 16:30 500 TL
984 2017 Mercedes AROCS 4142 K 8X4 E6 Mersin 3.9.2026 16:30 3.000 TL
985 2022 Toyota COROLLA 1.5 DREAM MULTIDRIVE S İstanbul 3.9.2026 16:30 1.000 TL
986 2025 Citroen JUMPY 1.5 BLUEHDI Kahramanmaraş 3.9.2026 16:30 500 TL
987 2014 Fiat/Tofaş LINEA ACTUAL PLUS 1.3 M.JET 95 E5 Denizli 3.9.2026 16:30 500 TL
988 2017 Volkswagen CRAFTER 19+1 Trabzon 3.9.2026 16:30 1.000 TL
989 2020 Motorsiklet RKS SPONTINI 110 (GST110T-14) İstanbul 3.9.2026 16:30 500 TL
990 2014 Dacia LOGAN MCV AMBIANCE 1.2 16V 75 İstanbul 3.9.2026 16:30 2.000 TL
991 2005 Renault KANGOO MULTIX 1.5 DCI AUTHENTIQUE İstanbul 3.9.2026 16:30 1.500 TL
992 2018 Motorsiklet KUBA EGE 50 Antalya 3.9.2026 16:30 500 TL
993 2019 Hyundai KONA 1.6 CRDI ELITE SMART DCT Ankara 3.9.2026 16:30 1.000 TL
994 2024 Motorsiklet RKS SRK 125 - R Kayseri 3.9.2026 16:30 500 TL
995 1998 Hyundai ACCENT 1.3 LS SEDAN Gaziantep 3.9.2026 16:30 1.000 TL
996 2005 Dacia LOGAN AMBIANCE 1.4 PACK Konya 3.9.2026 16:30 500 TL
997 2010 Ford TOURNEO CONNECT KOMBI 1.8 TDCI Kastamonu 3.9.2026 16:30 41.000 TL
998 2024 Motorsiklet RKS RODOS 50 Kırşehir 3.9.2026 16:30 500 TL
999 1996 Hyundai H100 2.5 D 5+1 CAMLIVAN Kahramanmaraş 3.9.2026 16:30 500 TL
1000 2007 Renault CLIO SYMBOL AUTHENTQUE 1.5 DCI İstanbul 3.9.2026 16:30 1.000 TL
1001 2005 Renault TRAFIC 1.9 DCI İstanbul 3.9.2026 16:30 500 TL
1002 2017 Honda CBR 250 R İstanbul 3.9.2026 16:30 1.000 TL
1003 2022 Honda PCX 125 İstanbul 3.9.2026 16:30 1.000 TL
1004 2025 Honda PCX 125 DLX Bursa 3.9.2026 16:30 1.000 TL
1005 2004 Ford T. CONNECT KOMBI K210S 1.8 TDCİ Manisa 3.9.2026 16:30 1.000 TL
1006 2005 Dacia LOGAN 1.4 Bursa 3.9.2026 16:30 1.000 TL
1007 1990 Ford TAUNUS 1.6 İzmir 3.9.2026 16:30 1.000 TL
1008 2020 Motorsiklet XMAX 400 İstanbul 3.9.2026 16:30 3.500 TL
1009 2004 Honda ACCORD 2.0 Antalya 3.9.2026 16:30 79.500 TL
1010 1996 Fiat/Tofaş SAHIN S Ankara 3.9.2026 16:30 1.000 TL
1011 2012 Chevrolet AVEO SEDAN 1.3 DİZEL İstanbul 3.9.2026 16:30 2.500 TL
1012 2001 Peugeot PARTNER 1.9D Kayseri 3.9.2026 16:30 1.000 TL
1013 2022 Mercedes EQE 350 AMG İstanbul 4.9.2026 15:15 745.000 TL
1014 2025 Motorsiklet KUBA BRILLIANT 125 İstanbul 4.9.2026 15:30 1.000 TL
1015 2006 Jaguar X TYPE 2.0 D EXECUTIVE İstanbul 4.9.2026 15:30 1.000 TL
1016 2006 Ford FUSION 1.6 TDCi LUX Erzurum 4.9.2026 15:30 1.000 TL
1017 2005 Toyota YARIS 1.0 İstanbul 4.9.2026 15:30 1.000 TL
1018 2015 Motorsiklet XMAX 250 Balıkesir 4.9.2026 15:30 1.000 TL
1019 2024 Honda HONDA ADV350 İstanbul 4.9.2026 15:30 1.000 TL
1020 1996 Suzuki VITARA 1.6 JLX Şehir Seç 4.9.2026 15:30 1.000 TL
1021 2018 Peugeot 301 1.6 BLUEHDI Şehir Seç 4.9.2026 15:30 1.000 TL
1022 2007 Honda CIVIC SEDAN 1.6 Sinop 4.9.2026 15:30 1.000 TL
1023 2008 Fiat/Tofaş DOBLO CARGO 1.4 ACTUAL Ankara 4.9.2026 15:30 1.000 TL
1024 2021 Renault MEGANE 1,3 TCE Ankara 4.9.2026 15:30 1.000 TL
1025 1993 Toyota COROLLA 1,3 Şehir Seç 4.9.2026 15:30 1.000 TL
1026 1985 Fiat/Tofaş 131 Elazığ 4.9.2026 15:30 1.000 TL
1027 2024 Ford TRANSİT 16+1 Antalya 4.9.2026 15:30 1.000 TL
1028 2019 Motorsiklet 250 NK Kocaeli 4.9.2026 15:30 1.000 TL
1029 2001 Volkswagen BORA 1.6 İzmir 4.9.2026 15:30 1.000 TL
1030 2006 Peugeot 307 COMFORT 1.6 HDI Samsun 4.9.2026 15:30 1.000 TL
1031 2025 Hyundai IONIQ 5 Bursa 4.9.2026 15:30 1.000 TL
1032 2024 Honda PCX 125 Şehir Seç 4.9.2026 15:30 1.000 TL
1033 2022 Ford TOURNEO COURIER KOMBI 1.5TDCI Ankara 4.9.2026 15:30 1.000 TL
1034 2020 Jeep RENEGADE 1.6 MJET Ankara 4.9.2026 15:30 1.000 TL
1035 2018 Dacia LOGAN MCV 1,5 DCI İzmir 4.9.2026 15:30 1.000 TL
1036 2018 Ford KAMYON 4142 Ankara 4.9.2026 15:30 1.000 TL
1037 2025 Audi A3 SPORTBACK 35 TFSI İstanbul 4.9.2026 15:30 1.000 TL
1038 2010 Volkswagen GOLF VI 1.4 TSI (122) HIGHLINE TIPTR.DSG Tekirdağ 4.9.2026 15:30 1.000 TL
1039 2026 Motorsiklet MAX PRO150 T Artvin 4.9.2026 15:30 1.000 TL
1040 2012 Toyota YARIS 1.33 FUN Kastamonu 4.9.2026 15:30 1.000 TL
1041 2023 Motorsiklet BRİLLİANT 125 İstanbul 4.9.2026 15:30 1.000 TL
1042 2019 Ford TOURNEO COURIER KOMBI 1.5 TDCI 75 İzmir 4.9.2026 15:30 1.000 TL
1043 2004 Peugeot PARTNER COMBI VAN 190 C 1.9 D Elazığ 4.9.2026 15:30 1.000 TL
1044 2008 Hyundai GETZ 1.5 CRDi VGT (120) Edirne 4.9.2026 15:30 1.000 TL
1045 2010 Mazda 3 HB 1.6 (105) Ankara 4.9.2026 15:30 1.000 TL
1046 2019 Motorsiklet JET14 125 İstanbul 4.9.2026 15:30 1.000 TL
1047 2020 Fiat/Tofaş EGEA SEDAN 1.6 M.JET 120 DCT Antalya 4.9.2026 15:30 1.000 TL
1048 2005 Fiat/Tofaş MAREA 1.6 LIBERTY Bursa 4.9.2026 15:30 1.000 TL
1049 2012 Ford FOCUS 1.0 ECOBOOST 125 Erzurum 4.9.2026 15:30 1.000 TL
1050 2024 Honda PCX 125 Ankara 4.9.2026 15:30 1.000 TL
1051 2023 Motorsiklet KUBA CG50 PRO Hatay 4.9.2026 15:30 1.000 TL
1052 2024 Renault CAPTUR 1.3 HYBRID Batman 4.9.2026 15:30 1.000 TL
1053 2006 Mazda 3 1.6 HB Elazığ 4.9.2026 15:30 1.000 TL
1054 2009 Fiat/Tofaş PUNTO 1.4 Şehir Seç 4.9.2026 15:30 1.000 TL
1055 2022 Renault MEGANE 1,3 TCE Şanlıurfa 4.9.2026 15:30 1.000 TL
1056 2020 Toyota COROLLA 1.6 Ankara 4.9.2026 15:30 1.000 TL
1057 2022 Ford TOURNEO COURIER KOMBI 1.5 TDCI 100 Şehir Seç 4.9.2026 15:30 1.000 TL
1058 1999 Renault 19 EUROPA 1.6i RNE Kastamonu 4.9.2026 15:30 1.000 TL
1059 2022 Renault TALIANT 1.0 TURBO Şanlıurfa 4.9.2026 15:30 1.000 TL
1060 1992 Fiat/Tofaş ŞAHİN 1.6 Niğde 4.9.2026 15:30 1.000 TL
1061 2013 Hyundai i30 1.6 CRDI Ankara 4.9.2026 15:30 1.000 TL
1062 2025 Ford DUCATO VAN 2.2 D Kayseri 4.9.2026 15:30 1.000 TL
1063 2015 Fiat/Tofaş FIORINO COMBI 1.3 M.JET Şehir Seç 4.9.2026 15:30 1.000 TL
1064 2023 Kia STONIC 1.4 Ankara 4.9.2026 15:30 1.000 TL
1065 2025 Motorsiklet ICON 50 ST İstanbul 4.9.2026 15:30 1.000 TL
1066 2023 Motorsiklet AROME 125 Mersin 4.9.2026 15:30 1.000 TL
1067 2008 Mercedes VITO CDI Şehir Seç 4.9.2026 15:30 1.000 TL
1068 2024 Motorsiklet MT 25 Antalya 4.9.2026 15:30 1.000 TL
1069 2018 Toyota C-HR 1.8 HYBRID İzmir 4.9.2026 15:30 1.000 TL
1070 2008 Iveco DAILY KAMYONET 35 C 15 CC 4100 İstanbul 4.9.2026 15:30 1.000 TL
1071 2008 Fiat/Tofaş G.PUNTO 1.4 FIRE ACTIVE Aydın 4.9.2026 15:30 1.000 TL
1072 2008 Ford T. CONNECT KOMBI K210S 1.8 TDCi (75) Sinop 4.9.2026 15:30 1.000 TL
1073 1994 Renault R9 1.6 FAİRWAY Şanlıurfa 4.9.2026 15:30 1.000 TL
1074 2016 Dacia SANDERO STEPWAY 1.5 DCI 90 Mersin 4.9.2026 15:30 1.000 TL
1075 2016 Motorsiklet ATTACK 100 Kayseri 4.9.2026 15:30 1.000 TL
1076 1998 Hyundai ACCENT 1.5 Isparta 4.9.2026 15:30 1.000 TL
1077 2012 Mercedes VİTO 113 CDİ 9+1 Trabzon 4.9.2026 15:30 1.000 TL
1078 2016 Hyundai TUCSON 1.6 T-GDI Ankara 4.9.2026 15:30 1.000 TL
1079 1986 Renault 9 BROADWAY Amasya 4.9.2026 15:30 1.000 TL
1080 2024 Motorsiklet JET X 125 Trabzon 4.9.2026 15:30 1.000 TL
1081 2023 Motorsiklet 250 SR Şehir Seç 4.9.2026 15:30 1.000 TL
1082 2010 Renault SYMBOL AUTHENTIQUE 1.5 DCI İstanbul 4.9.2026 15:30 1.000 TL
1083 2000 Hyundai ACCENT 1.3 LX Bartın 4.9.2026 15:30 1.000 TL
1084 2010 Volkswagen PASSAT 1.4 TSI Van 4.9.2026 15:30 1.000 TL
1085 2023 Motorsiklet JOYRIDE Şanlıurfa 4.9.2026 15:30 1.000 TL
1086 2021 Peugeot 3008 1.6 İstanbul 4.9.2026 15:30 1.000 TL
1087 2006 Peugeot PARTNER COMBİ 1.9D Şehir Seç 4.9.2026 15:30 1.000 TL
1088 2007 Hyundai SONATA 2.0 CRDi Şehir Seç 4.9.2026 15:30 1.000 TL
1089 2013 Hyundai ACCENT BLUE Şehir Seç 4.9.2026 15:30 1.000 TL
1090 2020 Ford TOURNEO COURIER 1.5 TDCİ İstanbul 4.9.2026 15:30 1.000 TL
1091 2015 Renault KADJAR TOUCH 1.2 Erzincan 4.9.2026 15:30 1.000 TL
1092 1991 Fiat/Tofaş ŞAHİN 1.6 Artvin 4.9.2026 15:30 1.000 TL
1093 2013 Volkswagen AMAROK 2.0 TDI Giresun 4.9.2026 15:30 1.000 TL
1094 2002 Peugeot 307 XS 1.6 Şehir Seç 4.9.2026 15:30 1.000 TL
1095 2024 Honda DIO 110 Şehir Seç 4.9.2026 15:30 1.000 TL
1096 2008 Hyundai i30 1.6 CRDi Bursa 4.9.2026 15:30 1.000 TL
1097 1993 Fiat/Tofaş TEMPRA SXA Bursa 4.9.2026 15:30 1.000 TL
1098 2016 Opel CORSA 1.4 90 Aydın 4.9.2026 15:30 1.000 TL
1099 2020 Volkswagen PASSAT 1.6 TDI BMT 120 DSG Gaziantep 4.9.2026 15:30 1.000 TL
1100 2026 Motorsiklet SMART 50 Balıkesir 4.9.2026 15:30 1.000 TL
1101 2023 Motorsiklet 250 CL-X Kahramanmaraş 4.9.2026 15:30 1.000 TL
1102 1995 Mercedes E 200 Adana 4.9.2026 15:30 1.000 TL
1103 2023 Renault MEGANE SEDAN 1.3 TCE EDC 140 Ankara 4.9.2026 15:30 1.000 TL
1104 2017 Motorsiklet MT 25 Kayseri 4.9.2026 15:30 1.000 TL
1105 2015 Hyundai I30 1.6 CRDİ Aydın 4.9.2026 15:30 1.000 TL
1106 2014 Ford TOURNEO COURIER KOMBI 1.6 TDCI 95 Çanakkale 4.9.2026 15:30 1.000 TL
1107 1993 Opel VECTRA Erzincan 4.9.2026 15:30 1.000 TL
1108 2016 Hyundai ACCENT BLUE 1.6 CRDI Kayseri 4.9.2026 15:30 1.000 TL
1109 2022 Renault MEGANE SEDAN 1.5 BLUEDCI İstanbul 4.9.2026 15:30 1.000 TL
1110 2021 Renault MEGANE SEDAN 1.5 BLUEDCI Diyarbakır 4.9.2026 15:30 1.000 TL
1111 2017 Honda CIVIC SEDAN 1.6İ VTEC Kocaeli 4.9.2026 15:30 1.000 TL
1112 2012 Ford FOCUS SEDAN 1.6 TDCI Antalya 4.9.2026 15:30 1.000 TL
1113 2012 Chevrolet CRUZE 1.6 Malatya 4.9.2026 15:30 1.000 TL
1114 2014 Renault FLUENCE 1.5 DCI 90 Şehir Seç 4.9.2026 15:30 1.000 TL
1115 2016 Nissan QASHQAI 1.2 TURBO SKYPACK X-TRONIC İzmir 4.9.2026 15:30 1.000 TL
1116 2023 Motorsiklet R25 ABS Mersin 4.9.2026 15:30 1.000 TL
1117 2025 Motorsiklet EGE 50 Mersin 4.9.2026 15:30 1.000 TL
1118 2010 Motorsiklet KLX 250 İstanbul 4.9.2026 15:30 1.000 TL
1119 2015 Audi A6 2.0 TDI (190) S TRONIC PI Ankara 4.9.2026 15:30 1.000 TL
1120 2020 Honda PCX 125 Gaziantep 4.9.2026 15:30 1.000 TL
1121 2011 Volkswagen CADDY KOMBI 1.6 TDI (102) Antalya 4.9.2026 15:30 1.000 TL
1122 2013 Dacia DOKKER COMBI AMBIANCE 1.5 DCI 90 Kayseri 4.9.2026 15:30 1.000 TL
1123 2023 Motorsiklet FREEDOM 50 Samsun 4.9.2026 15:30 1.000 TL
1124 2025 Motorsiklet YUKI 110 Konya 4.9.2026 15:30 1.000 TL
1125 2016 Bmw 520i SEDAN 1.6 (170) Bursa 4.9.2026 15:30 1.000 TL
1126 2008 Bmw 118i Antalya 4.9.2026 15:30 1.000 TL
1127 2023 Dacia JOGGER 1.0 ECO-G 100 7 KOLTUKLU Erzurum 4.9.2026 15:30 1.000 TL
1128 2014 Mercedes E 250 COUPE Antalya 4.9.2026 15:30 1.000 TL
1129 2012 Motorsiklet YZF R125 Antalya 4.9.2026 15:30 1.000 TL
1130 0 Emtea İstanbul 4.9.2026 15:30 TL
1131 1996 Fiat/Tofaş SAHIN 1.6 Yozgat 4.9.2026 15:30 1.000 TL
1132 2016 Motorsiklet YAMAHA GPD 125-A Denizli 4.9.2026 15:30 1.000 TL
1133 2005 Hyundai ACCENT 1.6 Adıyaman 4.9.2026 15:30 1.000 TL
1134 2014 Ford TRANSIT VAN Kayseri 4.9.2026 15:30 1.000 TL
1135 2016 Opel CORSA 1.4 Kayseri 4.9.2026 15:30 1.000 TL
1136 2017 Volkswagen POLO 1.4 TDI Antalya 4.9.2026 15:30 1.000 TL
1137 2023 Fiat/Tofaş EGEA SEDAN 1.4 FIRE Van 4.9.2026 15:30 1.000 TL
1138 1993 Fiat/Tofaş TEMPRA SX Ankara 4.9.2026 15:30 1.000 TL
1139 1988 Renault 12 TSW TOROS Balıkesir 4.9.2026 15:30 1.000 TL
1140 2023 Daf XG 480 FT Mersin 4.9.2026 16:30 1.000 TL
1141 2023 Renault MEGANE SEDAN ICON 1.3 TCE EDC 140 FAZ2 İstanbul 4.9.2026 16:30 1.000 TL
1142 2024 Motorsiklet RKS NEWLIGHT 125 PRO İstanbul 4.9.2026 16:30 1.000 TL
1143 2014 Chrysler JEEP RENEGADE 1.6 MULTIJET LIMITED İstanbul 4.9.2026 16:30 1.000 TL
1144 2026 Fiat/Tofaş EGEA SEDAN EASY 1.6 M.JET 130 DCT GSR Samsun 4.9.2026 16:30 300.000 TL
1145 2026 Motorsiklet MONDIAL SCOOTER 50 REVIVAL İstanbul 4.9.2026 16:30 1.000 TL
1146 2012 Motorsiklet HONDA CBF 250 Bursa 4.9.2026 16:30 1.000 TL
1147 2004 Toyota COROLLA 1.6 SOL HB Eskişehir 4.9.2026 16:30 1.000 TL
1148 2024 Motorsiklet ARORA MOJITO 125 İstanbul 4.9.2026 16:30 1.000 TL
1149 2004 Audi A6 1.8T MULTITRONIC Afyonkarahisar 4.9.2026 16:30 1.000 TL
1150 2025 Motorsiklet RKS PRECIO 250 MAX İstanbul 4.9.2026 16:30 1.000 TL
1151 2025 Motorsiklet HONDA DIO İstanbul 4.9.2026 16:30 4.000 TL
1152 2022 Motorsiklet DUCATI MULTISTRADA V4 PIKES PEAK İstanbul 4.9.2026 16:30 1.000 TL
1153 1993 Renault 12 TSW TOROS 5 VT Diyarbakır 4.9.2026 16:30 1.000 TL
1154 2012 Mitsubishi L200 CIFT KABIN KAMYONET 4x2 INVITE Ankara 4.9.2026 16:30 1.000 TL
1155 2009 Renault SYMBOL EXPRESSION 1.4 75 İstanbul 4.9.2026 16:30 1.000 TL
1156 2006 Ford FOCUS 1.6i SW TREND (100) Ankara 4.9.2026 16:30 70.000 TL
1157 2023 Bmw CE 04 İstanbul 4.9.2026 16:30 1.500 TL
1158 2016 Ford FOCUS TREND X 1.5 TDCI Aksaray 4.9.2026 16:30 1.000 TL
1159 2004 Peugeot 206 1.4 Gaziantep 4.9.2026 16:30 1.000 TL
1160 2024 Motorsiklet AZURE GST50QT-5 Şehir Seç 7.9.2026 15:30 1.000 TL
1161 2014 Mercedes SPRINTER 416 CDI OTOBUS 19+1 Ankara 7.9.2026 15:30 1.000 TL
1162 2001 Fiat/Tofaş MAREA 1.6 ELX Kayseri 7.9.2026 15:30 1.000 TL
1163 1992 Fiat/Tofaş DOĞAN 1.6 Balıkesir 7.9.2026 15:30 1.000 TL
1164 2012 Ford T. CONNECT KOMBI 1.8 TDCi Siirt 7.9.2026 15:30 1.000 TL
1165 1995 Fiat/Tofaş UNO SX Gaziantep 7.9.2026 15:30 1.000 TL
1166 2024 Motorsiklet 250 SR Antalya 7.9.2026 15:30 1.000 TL
1167 2021 Citroen C5AIRCROSS SHINEBOLD 1.5 BLUEHDI 130 S&S EAT8 İstanbul 7.9.2026 16:30 750.000 TL
1168 2025 Renault CLIO EVOLUTION 1.0 TCE X-TRONIC 90 İstanbul 7.9.2026 16:30 515.000 TL
1169 2021 Ford TOURNEO COURIER JOURNEY 1.5 TDCI 100 E6.2 TIT İstanbul 7.9.2026 16:30 100.000 TL
1170 2022 Renault TALIANT JOY 1.0 SCE 65 Ankara 7.9.2026 16:30 55.000 TL
1171 2024 Skoda KAMIQ 1.0 TSI 115 DSG ELITE FL İstanbul 7.9.2026 16:30 605.000 TL
1172 2007 Ford TRANSIT 350 M KAMYONET Giresun 7.9.2026 16:30 125.000 TL
1173 2025 Scania S560 DYNAMIC Samsun 7.9.2026 16:30 1.450.000 TL
1174 2025 Motorsiklet 250 SR Antalya 8.9.2026 15:30 1.000 TL
1175 2004 Suzuki GSXR 750 Şehir Seç 8.9.2026 15:30 1.000 TL
1176 1996 Fiat/Tofaş KARTAL SLX Karaman 8.9.2026 15:30 1.000 TL
1177 2012 Skoda FABIA 1.2 Bolu 8.9.2026 15:30 1.000 TL
1178 2025 Citroen C4 X 1.2 PURETECH Niğde 8.9.2026 15:30 1.000 TL
1179 2019 Peugeot 3008 1.5 BLUEHDI Şanlıurfa 8.9.2026 15:30 1.000 TL
1180 2024 Peugeot e-2008 Kayseri 8.9.2026 15:30 1.000 TL
1181 2001 Renault CLIO SEDAN 1.4 RNA Balıkesir 8.9.2026 15:30 1.000 TL
1182 2017 Audi A6 2.0 TDI Şanlıurfa 8.9.2026 15:30 1.000 TL
1183 1989 Renault 11 FLASH Şehir Seç 8.9.2026 15:30 TL
1184 2024 Togg T10X V2 RWD UZUN MENZIL 160KW İzmir 8.9.2026 15:30 1.000 TL
1185 2017 Ford FOCUS III MCA 1.6 TDCI Niğde 8.9.2026 15:30 1.000 TL
1186 2016 Fiat/Tofaş DOBLO COMBI 1.6 M.JET Şanlıurfa 8.9.2026 15:30 1.000 TL
1187 2024 Motorsiklet KUBA TK03 Malatya 9.9.2026 15:30 1.000 TL
1188 2023 Motorsiklet KUBA EGE 50 Osmaniye 9.9.2026 15:30 1.000 TL
1189 2016 Bmw 520i SEDAN 1.6 (170) İstanbul 9.9.2026 15:30 1.000 TL
1190 2012 Volkswagen GOLF 1.6 TDI BMT 105 COMFORTLINE İstanbul 9.9.2026 15:30 1.000 TL
1191 2020 Motorsiklet KRAL YKR44 PION Şehir Seç 9.9.2026 15:30 1.000 TL
1192 2022 Motorsiklet 250 DUKE Gaziantep 9.9.2026 15:30 1.000 TL
1193 1998 Ford LCY UZUN ŞASİ Manisa 9.9.2026 15:30 1.000 TL
1194 2020 Motorsiklet MTN 250 Muğla 9.9.2026 15:30 1.000 TL
1195 2024 Motorsiklet MONDIAL SCOOTER FURY 110i Aydın 9.9.2026 15:30 1.000 TL
1196 2009 Ford TRANSIT KAMYONET Şanlıurfa 9.9.2026 15:30 1.000 TL
1197 2023 Motorsiklet VIESTE 249 Şehir Seç 10.9.2026 15:30 1.000 TL
1198 2013 Fiat/Tofaş LINEA SEDAN 1.3 MULTIJET Konya 10.9.2026 15:30 1.000 TL
1199 2023 Motorsiklet KRAL RIGIL 125 Muğla 10.9.2026 15:30 1.000 TL
1200 2018 Motorsiklet CUP 100 SFC SNAPPY X Niğde 10.9.2026 15:30 1.000 TL
1201 2017 Bmw 318i SEDAN 1.5 Bursa 10.9.2026 15:30 1.000 TL
1202 2012 Fiat/Tofaş LINEA 1.3 MULTIJET Şehir Seç 10.9.2026 15:30 1.000 TL
1203 2004 Opel VECTRA 1.6 COMFORT Şanlıurfa 10.9.2026 15:30 1.000 TL
1204 2014 Peugeot 301 1,6 HDI İzmir 10.9.2026 15:30 1.000 TL
1205 2025 Opel CORSA 1.2 T Hatay 10.9.2026 15:30 1.000 TL
1206 2024 Byd SEAL U DM-i Şanlıurfa 10.9.2026 15:30 1.000 TL
1207 2013 Renault SYMBOL 1.5 DCI Balıkesir 10.9.2026 15:30 1.000 TL
1208 2023 Motorsiklet PULSAR F250 İstanbul 10.9.2026 15:30 1.000 TL
1209 2013 Opel CORSA 1.3 CDTi İzmir 10.9.2026 15:30 1.000 TL
1210 2023 Dacia DUSTER 1.5 BLUEDCI 115 Kars 11.9.2026 15:30 1.000 TL
1211 2001 Ford FOCUS 1.6i GHIA SEDAN Van 11.9.2026 15:30 1.000 TL
Deniz Uğurlu : 0532 6657413 - Abdullah Adsay : 0506 7521791 - Metin Oktay : 0532 6717940 -  WhatsApp Hattı: 0533 2028867
Banka Hesabımız
Copyright © 2003 , TAŞKIN  UĞURLU  Hasarlı Oto Tüm hakları saklıdır.